Observation data for Dozier on 11/14/2019      Previous  Date       Current Mesonet Observations  Soil Data  Daily Summary Page  Observations in Plain Language
KDO1 140600Z 35007KT 03/M03 A3013 RMK A01 T00251031  RH  066%=      5-min Rain = 0
KDO1 140601Z 36007KT 03/M03 A3013 RMK A01 T00251031  RH  067%=      5-min Rain = 0
KDO1 140602Z 35008KT 02/M03 A3013 RMK A01 T00241032  RH  067%=      5-min Rain = 0
KDO1 140603Z 35008KT 02/M03 A3013 RMK A01 T00231032  RH  067%=      5-min Rain = 0
KDO1 140604Z 35008KT 02/M03 A3013 RMK A01 T00231032  RH  067%=      5-min Rain = 0
KDO1 140605Z 35008KT 02/M03 A3013 RMK A01 T00221032  RH  068%=      5-min Rain = 0
KDO1 140606Z 35007KT 02/M03 A3013 RMK A01 T00221032  RH  068%=      5-min Rain = 0
KDO1 140607Z 35007KT 02/M03 A3013 RMK A01 T00221032  RH  068%=      5-min Rain = 0
KDO1 140608Z 35007KT 02/M03 A3013 RMK A01 T00221032  RH  068%=      5-min Rain = 0
KDO1 140609Z 34008KT 02/M03 A3013 RMK A01 T00211032  RH  068%=      5-min Rain = 0
KDO1 140610Z 35008KT 02/M03 A3013 RMK A01 T00221031  RH  068%=      5-min Rain = 0
KDO1 140611Z 35008KT 02/M03 A3013 RMK A01 T00221032  RH  068%=      5-min Rain = 0
KDO1 140612Z 35008KT 02/M03 A3014 RMK A01 T00211032  RH  068%=      5-min Rain = 0
KDO1 140613Z 35008KT 02/M03 A3014 RMK A01 T00211032  RH  068%=      5-min Rain = 0
KDO1 140614Z 35008KT 02/M03 A3014 RMK A01 T00201032  RH  068%=      5-min Rain = 0
KDO1 140615Z 35008KT 02/M03 A3014 RMK A01 T00201032  RH  068%=      5-min Rain = 0
KDO1 140616Z 35008KT 02/M03 A3014 RMK A01 T00201032  RH  068%=      5-min Rain = 0
KDO1 140617Z 35008KT 02/M03 A3014 RMK A01 T00201032  RH  068%=      5-min Rain = 0
KDO1 140618Z 35008KT 02/M03 A3014 RMK A01 T00201031  RH  069%=      5-min Rain = 0
KDO1 140619Z 35008KT 02/M03 A3014 RMK A01 T00201031  RH  069%=      5-min Rain = 0
KDO1 140620Z 34008KT 02/M03 A3014 RMK A01 T00211031  RH  068%=      5-min Rain = 0
KDO1 140621Z 34008KT 02/M03 A3014 RMK A01 T00211031  RH  068%=      5-min Rain = 0
KDO1 140622Z 34008KT 02/M03 A3014 RMK A01 T00211031  RH  068%=      5-min Rain = 0
KDO1 140623Z 34008KT 02/M03 A3014 RMK A01 T00221031  RH  068%=      5-min Rain = 0
KDO1 140624Z 34007KT 02/M03 A3014 RMK A01 T00221031  RH  068%=      5-min Rain = 0
KDO1 140625Z 34007KT 02/M03 A3014 RMK A01 T00231030  RH  068%=      5-min Rain = 0
KDO1 140626Z 34007KT 02/M03 A3014 RMK A01 T00221031  RH  068%=      5-min Rain = 0
KDO1 140627Z 34007KT 02/M03 A3014 RMK A01 T00231030  RH  068%=      5-min Rain = 0
KDO1 140628Z 34006KT 02/M03 A3015 RMK A01 T00231030  RH  068%=      5-min Rain = 0
KDO1 140629Z 35007KT 02/M03 A3015 RMK A01 T00231030  RH  068%=      5-min Rain = 0
KDO1 140630Z 35007KT 02/M03 A3015 RMK A01 T00231030  RH  068%=      5-min Rain = 0
KDO1 140631Z 35007KT 02/M03 A3015 RMK A01 T00231031  RH  068%=      5-min Rain = 0
KDO1 140632Z 35007KT 02/M03 A3015 RMK A01 T00231030  RH  068%=      5-min Rain = 0
KDO1 140633Z 35006KT 02/M03 A3015 RMK A01 T00231030  RH  068%=      5-min Rain = 0
KDO1 140634Z 00006KT 02/M03 A3015 RMK A01 T00231031  RH  068%=      5-min Rain = 0
KDO1 140635Z 00006KT 02/M03 A3015 RMK A01 T00231031  RH  068%=      5-min Rain = 0
KDO1 140636Z 01005KT 02/M03 A3015 RMK A01 T00231031  RH  067%=      5-min Rain = 0
KDO1 140637Z 01005KT 02/M03 A3015 RMK A01 T00231031  RH  067%=      5-min Rain = 0
KDO1 140638Z 01005KT 02/M03 A3015 RMK A01 T00231032  RH  067%=      5-min Rain = 0
KDO1 140639Z 01005KT 02/M03 A3015 RMK A01 T00221032  RH  067%=      5-min Rain = 0
KDO1 140640Z 01005KT 02/M03 A3015 RMK A01 T00221032  RH  068%=      5-min Rain = 0
KDO1 140641Z 01006KT 02/M03 A3015 RMK A01 T00211033  RH  068%=      5-min Rain = 0
KDO1 140642Z 01006KT 02/M03 A3015 RMK A01 T00201033  RH  068%=      5-min Rain = 0
KDO1 140643Z 01005KT 02/M03 A3015 RMK A01 T00191033  RH  068%=      5-min Rain = 0
KDO1 140644Z 01005KT 02/M03 A3015 RMK A01 T00191033  RH  069%=      5-min Rain = 0
KDO1 140645Z 01006KT 02/M03 A3015 RMK A01 T00181033  RH  069%=      5-min Rain = 0
KDO1 140646Z 00006KT 02/M03 A3015 RMK A01 T00171034  RH  069%=      5-min Rain = 0
KDO1 140647Z 00006KT 02/M03 A3015 RMK A01 T00171034  RH  069%=      5-min Rain = 0
KDO1 140648Z 36006KT 02/M03 A3015 RMK A01 T00161034  RH  070%=      5-min Rain = 0
KDO1 140649Z 36006KT 02/M03 A3015 RMK A01 T00151034  RH  070%=      5-min Rain = 0
KDO1 140650Z 36006KT 01/M03 A3015 RMK A01 T00141034  RH  070%=      5-min Rain = 0
KDO1 140651Z 36006KT 01/M03 A3015 RMK A01 T00131034  RH  071%=      5-min Rain = 0
KDO1 140652Z 35006KT 01/M03 A3015 RMK A01 T00131034  RH  071%=      5-min Rain = 0
KDO1 140653Z 35006KT 01/M03 A3015 RMK A01 T00121034  RH  071%=      5-min Rain = 0
KDO1 140654Z 35006KT 01/M03 A3015 RMK A01 T00121034  RH  071%=      5-min Rain = 0
KDO1 140655Z 35008KT 01/M03 A3015 RMK A01 T00121034  RH  071%=      5-min Rain = 0
KDO1 140656Z 35008KT 01/M03 A3015 RMK A01 T00131033  RH  071%=      5-min Rain = 0
KDO1 140657Z 35008KT 01/M03 A3015 RMK A01 T00141033  RH  071%=      5-min Rain = 0
KDO1 140658Z 35008KT 02/M03 A3015 RMK A01 T00171032  RH  070%=      5-min Rain = 0
KDO1 140659Z 36008KT 02/M03 A3015 RMK A01 T00191032  RH  069%=      5-min Rain = 0
KDO1 140700Z 00008KT 02/M03 A3015 RMK A01 T00201032  RH  068%=      5-min Rain = 0
KDO1 140701Z 36008KT 02/M03 A3015 RMK A01 T00221031  RH  068%=      5-min Rain = 0
KDO1 140702Z 36008KT 02/M03 A3015 RMK A01 T00231031  RH  068%=      5-min Rain = 0
KDO1 140703Z 35007KT 02/M03 A3015 RMK A01 T00241031  RH  067%=      5-min Rain = 0
KDO1 140704Z 35008KT 03/M03 A3015 RMK A01 T00251031  RH  067%=      5-min Rain = 0
KDO1 140705Z 36007KT 03/M03 A3015 RMK A01 T00251031  RH  066%=      5-min Rain = 0
KDO1 140706Z 36008KT 03/M03 A3015 RMK A01 T00251031  RH  066%=      5-min Rain = 0
KDO1 140707Z 36008KT 03/M03 A3015 RMK A01 T00261031  RH  066%=      5-min Rain = 0
KDO1 140708Z 36008KT 03/M03 A3015 RMK A01 T00271031  RH  065%=      5-min Rain = 0
KDO1 140709Z 36007KT 03/M03 A3015 RMK A01 T00271031  RH  065%=      5-min Rain = 0
KDO1 140710Z 00007KT 03/M03 A3015 RMK A01 T00271032  RH  065%=      5-min Rain = 0
KDO1 140711Z 00007KT 03/M03 A3015 RMK A01 T00271032  RH  065%=      5-min Rain = 0
KDO1 140712Z 00007KT 03/M03 A3015 RMK A01 T00271032  RH  065%=      5-min Rain = 0
KDO1 140713Z 01006KT 03/M03 A3015 RMK A01 T00271032  RH  065%=      5-min Rain = 0
KDO1 140714Z 36007KT 03/M03 A3015 RMK A01 T00271032  RH  065%=      5-min Rain = 0
KDO1 140715Z 36008KT 03/M03 A3015 RMK A01 T00271032  RH  065%=      5-min Rain = 0
KDO1 140716Z 36008KT 03/M03 A3015 RMK A01 T00281032  RH  065%=      5-min Rain = 0
KDO1 140717Z 36008KT 03/M03 A3015 RMK A01 T00291032  RH  064%=      5-min Rain = 0
KDO1 140718Z 36008KT 03/M03 A3015 RMK A01 T00301032  RH  064%=      5-min Rain = 0
KDO1 140719Z 36009KT 03/M03 A3015 RMK A01 T00311032  RH  064%=      5-min Rain = 0
KDO1 140720Z 36008KT 03/M03 A3015 RMK A01 T00311032  RH  063%=      5-min Rain = 0
KDO1 140721Z 35009KT 03/M03 A3015 RMK A01 T00311032  RH  063%=      5-min Rain = 0
KDO1 140722Z 36009KT 03/M03 A3015 RMK A01 T00311032  RH  063%=      5-min Rain = 0
KDO1 140723Z 35009KT 03/M03 A3015 RMK A01 T00321032  RH  063%=      5-min Rain = 0
KDO1 140724Z 35010KT 03/M03 A3015 RMK A01 T00331032  RH  063%=      5-min Rain = 0
KDO1 140725Z 35010KT 03/M03 A3015 RMK A01 T00331032  RH  062%=      5-min Rain = 0
KDO1 140726Z 35009KT 03/M03 A3015 RMK A01 T00341031  RH  062%=      5-min Rain = 0
KDO1 140727Z 35009KT 04/M03 A3015 RMK A01 T00351031  RH  062%=      5-min Rain = 0
KDO1 140728Z 35008KT 03/M03 A3015 RMK A01 T00341032  RH  062%=      5-min Rain = 0
KDO1 140729Z 00009KT 04/M03 A3015 RMK A01 T00351032  RH  062%=      5-min Rain = 0
KDO1 140730Z 36009KT 04/M03 A3015 RMK A01 T00361031  RH  061%=      5-min Rain = 0
KDO1 140731Z 36009KT 04/M03 A3015 RMK A01 T00371031  RH  061%=      5-min Rain = 0
KDO1 140732Z 36009KT 04/M03 A3015 RMK A01 T00381031  RH  061%=      5-min Rain = 0
KDO1 140733Z 36009KT 04/M03 A3015 RMK A01 T00391031  RH  060%=      5-min Rain = 0
KDO1 140734Z 36009KT 04/M03 A3016 RMK A01 T00401030  RH  060%=      5-min Rain = 0
KDO1 140735Z 00009KT 04/M03 A3016 RMK A01 T00421030  RH  059%=      5-min Rain = 0
KDO1 140736Z 00009KT 04/M03 A3016 RMK A01 T00431030  RH  059%=      5-min Rain = 0
KDO1 140737Z 36010KT 04/M03 A3016 RMK A01 T00441030  RH  059%=      5-min Rain = 0
KDO1 140738Z 00009KT 05/M03 A3016 RMK A01 T00451030  RH  058%=      5-min Rain = 0
KDO1 140739Z 00009KT 05/M03 A3016 RMK A01 T00461030  RH  058%=      5-min Rain = 0
KDO1 140740Z 00009KT 05/M03 A3016 RMK A01 T00471030  RH  057%=      5-min Rain = 0
KDO1 140741Z 36009KT 05/M03 A3016 RMK A01 T00471031  RH  057%=      5-min Rain = 0
KDO1 140742Z 36009KT 05/M03 A3016 RMK A01 T00471031  RH  057%=      5-min Rain = 0
KDO1 140743Z 36010KT 05/M03 A3016 RMK A01 T00471031  RH  057%=      5-min Rain = 0
KDO1 140744Z 36010KT 05/M03 A3016 RMK A01 T00471031  RH  057%=      5-min Rain = 0
KDO1 140745Z 36011KT 05/M03 A3016 RMK A01 T00471032  RH  057%=      5-min Rain = 0
KDO1 140746Z 36010KT 05/M03 A3016 RMK A01 T00481032  RH  056%=      5-min Rain = 0
KDO1 140747Z 35010KT 05/M03 A3016 RMK A01 T00491031  RH  056%=      5-min Rain = 0
KDO1 140748Z 35011KT 05/M03 A3016 RMK A01 T00481032  RH  056%=      5-min Rain = 0
KDO1 140749Z 36011KT 05/M03 A3016 RMK A01 T00491032  RH  056%=      5-min Rain = 0
KDO1 140750Z 35011KT 05/M03 A3016 RMK A01 T00491032  RH  056%=      5-min Rain = 0
KDO1 140751Z 36010KT 05/M03 A3017 RMK A01 T00491032  RH  056%=      5-min Rain = 0
KDO1 140752Z 36012KT 05/M03 A3017 RMK A01 T00491032  RH  056%=      5-min Rain = 0
KDO1 140753Z 35011KT 05/M03 A3017 RMK A01 T00491032  RH  056%=      5-min Rain = 0
KDO1 140754Z 35011KT 05/M03 A3017 RMK A01 T00491033  RH  055%=      5-min Rain = 0
KDO1 140755Z 35012KT 05/M03 A3017 RMK A01 T00501032  RH  055%=      5-min Rain = 0
KDO1 140756Z 36011KT 05/M03 A3017 RMK A01 T00501032  RH  055%=      5-min Rain = 0
KDO1 140757Z 35011KT 05/M03 A3017 RMK A01 T00511032  RH  055%=      5-min Rain = 0
KDO1 140758Z 35011KT 05/M03 A3017 RMK A01 T00511033  RH  055%=      5-min Rain = 0
KDO1 140759Z 35011KT 05/M03 A3017 RMK A01 T00511033  RH  055%=      5-min Rain = 0
KDO1 140800Z 35011KT 05/M03 A3017 RMK A01 T00511033  RH  055%=      5-min Rain = 0
KDO1 140801Z 35012KT 05/M03 A3018 RMK A01 T00511033  RH  055%=      5-min Rain = 0
KDO1 140802Z 35010G15KT 05/M03 A3018 RMK A01 T00511033  RH  055%=      5-min Rain = 0
KDO1 140803Z 35012KT 05/M03 A3018 RMK A01 T00511033  RH  055%=      5-min Rain = 0
KDO1 140804Z 36011KT 05/M03 A3018 RMK A01 T00511033  RH  054%=      5-min Rain = 0
KDO1 140805Z 35011KT 05/M03 A3018 RMK A01 T00511033  RH  054%=      5-min Rain = 0
KDO1 140806Z 36011KT 05/M03 A3018 RMK A01 T00511033  RH  054%=      5-min Rain = 0
KDO1 140807Z 36012KT 05/M03 A3018 RMK A01 T00511034  RH  054%=      5-min Rain = 0
KDO1 140808Z 00011KT 05/M03 A3018 RMK A01 T00511034  RH  054%=      5-min Rain = 0
KDO1 140809Z 36011KT 05/M03 A3018 RMK A01 T00511034  RH  054%=      5-min Rain = 0
KDO1 140810Z 36011KT 05/M03 A3018 RMK A01 T00511034  RH  054%=      5-min Rain = 0
KDO1 140811Z 36012KT 05/M03 A3018 RMK A01 T00501034  RH  054%=      5-min Rain = 0
KDO1 140812Z 36010G15KT 05/M03 A3018 RMK A01 T00501034  RH  055%=      5-min Rain = 0
KDO1 140813Z 36011KT 05/M03 A3018 RMK A01 T00491034  RH  055%=      5-min Rain = 0
KDO1 140814Z 00010KT 05/M03 A3018 RMK A01 T00501034  RH  055%=      5-min Rain = 0
KDO1 140815Z 01010KT 05/M04 A3018 RMK A01 T00491035  RH  054%=      5-min Rain = 0
KDO1 140816Z 00010KT 05/M03 A3018 RMK A01 T00501034  RH  054%=      5-min Rain = 0
KDO1 140817Z 00009KT 05/M04 A3018 RMK A01 T00491035  RH  055%=      5-min Rain = 0
KDO1 140818Z 01010KT 05/M04 A3018 RMK A01 T00481035  RH  055%=      5-min Rain = 0
KDO1 140819Z 00010KT 05/M04 A3018 RMK A01 T00471036  RH  055%=      5-min Rain = 0
KDO1 140820Z 01012KT 05/M04 A3018 RMK A01 T00471036  RH  055%=      5-min Rain = 0
KDO1 140821Z 01011KT 05/M04 A3018 RMK A01 T00481035  RH  055%=      5-min Rain = 0
KDO1 140822Z 00009KT 05/M04 A3018 RMK A01 T00481036  RH  055%=      5-min Rain = 0
KDO1 140823Z 01008KT 05/M04 A3018 RMK A01 T00471036  RH  055%=      5-min Rain = 0
KDO1 140824Z 00009KT 05/M04 A3018 RMK A01 T00461036  RH  055%=      5-min Rain = 0
KDO1 140825Z 00010KT 05/M04 A3018 RMK A01 T00461036  RH  055%=      5-min Rain = 0
KDO1 140826Z 36010KT 05/M04 A3018 RMK A01 T00451037  RH  055%=      5-min Rain = 0
KDO1 140827Z 36010KT 05/M04 A3018 RMK A01 T00451036  RH  056%=      5-min Rain = 0
KDO1 140828Z 35010KT 04/M04 A3018 RMK A01 T00441037  RH  056%=      5-min Rain = 0
KDO1 140829Z 36010KT 04/M04 A3018 RMK A01 T00441037  RH  056%=      5-min Rain = 0
KDO1 140830Z 35010KT 04/M04 A3019 RMK A01 T00441037  RH  056%=      5-min Rain = 0
KDO1 140831Z 35010KT 04/M04 A3019 RMK A01 T00441037  RH  055%=      5-min Rain = 0
KDO1 140832Z 35010KT 05/M04 A3019 RMK A01 T00451037  RH  055%=      5-min Rain = 0
KDO1 140833Z 35011KT 05/M04 A3019 RMK A01 T00461037  RH  055%=      5-min Rain = 0
KDO1 140834Z 36009KT 05/M04 A3019 RMK A01 T00471037  RH  055%=      5-min Rain = 0
KDO1 140835Z 36010KT 05/M04 A3019 RMK A01 T00471037  RH  055%=      5-min Rain = 0
KDO1 140836Z 00009KT 05/M04 A3019 RMK A01 T00481036  RH  054%=      5-min Rain = 0
KDO1 140837Z 36011KT 05/M04 A3019 RMK A01 T00481036  RH  054%=      5-min Rain = 0
KDO1 140838Z 36010KT 05/M04 A3019 RMK A01 T00491035  RH  054%=      5-min Rain = 0
KDO1 140839Z 36011KT 05/M04 A3019 RMK A01 T00501035  RH  054%=      5-min Rain = 0
KDO1 140840Z 36010KT 05/M04 A3019 RMK A01 T00491035  RH  054%=      5-min Rain = 0
KDO1 140841Z 00011KT 05/M04 A302 RMK A01 T00501035  RH  054%=      5-min Rain = 0
KDO1 140842Z 36010KT 05/M03 A302 RMK A01 T00491034  RH  055%=      5-min Rain = 0
KDO1 140843Z 00010KT 05/M03 A302 RMK A01 T00491034  RH  055%=      5-min Rain = 0
KDO1 140844Z 36010KT 05/M03 A302 RMK A01 T00491034  RH  055%=      5-min Rain = 0
KDO1 140845Z 36011KT 05/M03 A302 RMK A01 T00501033  RH  055%=      5-min Rain = 0
KDO1 140846Z 36010KT 05/M03 A302 RMK A01 T00501033  RH  055%=      5-min Rain = 0
KDO1 140847Z 36010KT 05/M03 A302 RMK A01 T00501032  RH  055%=      5-min Rain = 0
KDO1 140848Z 36009KT 05/M03 A302 RMK A01 T00491032  RH  056%=      5-min Rain = 0
KDO1 140849Z 36011KT 05/M03 A302 RMK A01 T00501032  RH  056%=      5-min Rain = 0
KDO1 140850Z 00012KT 05/M03 A302 RMK A01 T00491031  RH  056%=      5-min Rain = 0
KDO1 140851Z 00012KT 05/M03 A302 RMK A01 T00491030  RH  056%=      5-min Rain = 0
KDO1 140852Z 36010KT 05/M03 A302 RMK A01 T00501030  RH  056%=      5-min Rain = 0
KDO1 140853Z 00011KT 05/M03 A302 RMK A01 T00501029  RH  056%=      5-min Rain = 0
KDO1 140854Z 36010KT 05/M03 A302 RMK A01 T00501029  RH  057%=      5-min Rain = 0
KDO1 140855Z 00010KT 05/M03 A302 RMK A01 T00501029  RH  057%=      5-min Rain = 0
KDO1 140856Z 00010G15KT 05/M03 A302 RMK A01 T00501028  RH  057%=      5-min Rain = 0
KDO1 140857Z 36010KT 05/M03 A302 RMK A01 T00501028  RH  057%=      5-min Rain = 0
KDO1 140858Z 36009KT 05/M03 A302 RMK A01 T00491028  RH  057%=      5-min Rain = 0
KDO1 140859Z 36008KT 05/M03 A302 RMK A01 T00481029  RH  057%=      5-min Rain = 0
KDO1 140900Z 00009KT 05/M03 A302 RMK A01 T00471029  RH  058%=      5-min Rain = 0
KDO1 140901Z 36009KT 05/M03 A302 RMK A01 T00461029  RH  058%=      5-min Rain = 0
KDO1 140902Z 36010KT 05/M03 A302 RMK A01 T00451029  RH  058%=      5-min Rain = 0
KDO1 140903Z 36012KT 04/M03 A302 RMK A01 T00441029  RH  059%=      5-min Rain = 0
KDO1 140904Z 36010KT 05/M03 A302 RMK A01 T00451028  RH  059%=      5-min Rain = 0
KDO1 140905Z 36010KT 05/M03 A302 RMK A01 T00451029  RH  059%=      5-min Rain = 0
KDO1 140906Z 35010KT 04/M03 A302 RMK A01 T00431029  RH  059%=      5-min Rain = 0
KDO1 140907Z 00009KT 04/M03 A302 RMK A01 T00421030  RH  059%=      5-min Rain = 0
KDO1 140908Z 36010KT 04/M03 A302 RMK A01 T00411030  RH  060%=      5-min Rain = 0
KDO1 140909Z 36009KT 04/M03 A3021 RMK A01 T00411029  RH  060%=      5-min Rain = 0
KDO1 140910Z 36009KT 04/M03 A3021 RMK A01 T00401029  RH  060%=      5-min Rain = 0
KDO1 140911Z 00010KT 04/M03 A3021 RMK A01 T00391029  RH  061%=      5-min Rain = 0
KDO1 140912Z 00009KT 04/M03 A3021 RMK A01 T00391029  RH  061%=      5-min Rain = 0
KDO1 140913Z 00009KT 04/M03 A3021 RMK A01 T00391029  RH  061%=      5-min Rain = 0
KDO1 140914Z 36009KT 04/M03 A3021 RMK A01 T00391028  RH  062%=      5-min Rain = 0
KDO1 140915Z 36010KT 04/M03 A3021 RMK A01 T00391028  RH  062%=      5-min Rain = 0
KDO1 140916Z 00010KT 04/M03 A3021 RMK A01 T00391028  RH  062%=      5-min Rain = 0
KDO1 140917Z 00010KT 04/M03 A3021 RMK A01 T00391028  RH  062%=      5-min Rain = 0
KDO1 140918Z 36010KT 04/M03 A3021 RMK A01 T00391028  RH  062%=      5-min Rain = 0
KDO1 140919Z 00009KT 04/M03 A3021 RMK A01 T00381028  RH  062%=      5-min Rain = 0
KDO1 140920Z 00008KT 04/M03 A3021 RMK A01 T00381028  RH  062%=      5-min Rain = 0
KDO1 140921Z 00010KT 04/M03 A3021 RMK A01 T00381027  RH  062%=      5-min Rain = 0
KDO1 140922Z 36008KT 04/M03 A3021 RMK A01 T00381027  RH  062%=      5-min Rain = 0
KDO1 140923Z 36008KT 04/M03 A3021 RMK A01 T00381027  RH  063%=      5-min Rain = 0
KDO1 140924Z 00008KT 04/M03 A3021 RMK A01 T00381027  RH  063%=      5-min Rain = 0
KDO1 140925Z 00008KT 04/M03 A3021 RMK A01 T00371027  RH  063%=      5-min Rain = 0
KDO1 140926Z 00009KT 04/M03 A3021 RMK A01 T00371027  RH  063%=      5-min Rain = 0
KDO1 140927Z 36009KT 04/M03 A3021 RMK A01 T00371027  RH  063%=      5-min Rain = 0
KDO1 140928Z 00009KT 04/M03 A3021 RMK A01 T00381026  RH  063%=      5-min Rain = 0
KDO1 140929Z 00009KT 04/M03 A3021 RMK A01 T00371026  RH  063%=      5-min Rain = 0
KDO1 140930Z 00009KT 04/M03 A3021 RMK A01 T00371026  RH  063%=      5-min Rain = 0
KDO1 140931Z 36009KT 04/M03 A3021 RMK A01 T00371026  RH  064%=      5-min Rain = 0
KDO1 140932Z 36009KT 04/M03 A3021 RMK A01 T00371026  RH  064%=      5-min Rain = 0
KDO1 140933Z 36010KT 04/M03 A3021 RMK A01 T00361026  RH  064%=      5-min Rain = 0
KDO1 140934Z 36010KT 04/M03 A3021 RMK A01 T00361026  RH  064%=      5-min Rain = 0
KDO1 140935Z 36010KT 04/M03 A3021 RMK A01 T00361026  RH  064%=      5-min Rain = 0
KDO1 140936Z 36009KT 04/M03 A3021 RMK A01 T00351026  RH  064%=      5-min Rain = 0
KDO1 140937Z 00010KT 04/M03 A3021 RMK A01 T00351026  RH  064%=      5-min Rain = 0
KDO1 140938Z 35009KT 04/M03 A3021 RMK A01 T00351026  RH  065%=      5-min Rain = 0
KDO1 140939Z 35009KT 04/M03 A3021 RMK A01 T00351026  RH  065%=      5-min Rain = 0
KDO1 140940Z 36009KT 04/M03 A3021 RMK A01 T00351025  RH  065%=      5-min Rain = 0
KDO1 140941Z 35009KT 04/M03 A3022 RMK A01 T00351025  RH  065%=      5-min Rain = 0
KDO1 140942Z 36010KT 03/M03 A3022 RMK A01 T00341026  RH  065%=      5-min Rain = 0
KDO1 140943Z 36009KT 03/M03 A3022 RMK A01 T00341025  RH  065%=      5-min Rain = 0
KDO1 140944Z 36009KT 03/M03 A3022 RMK A01 T00341026  RH  065%=      5-min Rain = 0
KDO1 140945Z 36010KT 03/M03 A3022 RMK A01 T00341025  RH  065%=      5-min Rain = 0
KDO1 140946Z 36009KT 03/M03 A3022 RMK A01 T00341025  RH  065%=      5-min Rain = 0
KDO1 140947Z 36009KT 03/M03 A3022 RMK A01 T00341025  RH  065%=      5-min Rain = 0
KDO1 140948Z 35009KT 03/M03 A3022 RMK A01 T00331026  RH  065%=      5-min Rain = 0
KDO1 140949Z 36008KT 03/M03 A3022 RMK A01 T00331026  RH  065%=      5-min Rain = 0
KDO1 140950Z 00009KT 03/M03 A3022 RMK A01 T00321026  RH  066%=      5-min Rain = 0
KDO1 140951Z 36008KT 03/M03 A3022 RMK A01 T00321025  RH  066%=      5-min Rain = 0
KDO1 140952Z 36009KT 03/M03 A3022 RMK A01 T00321025  RH  066%=      5-min Rain = 0
KDO1 140953Z 36009KT 03/M03 A3022 RMK A01 T00321025  RH  066%=      5-min Rain = 0
KDO1 140954Z 36009KT 03/M03 A3022 RMK A01 T00321025  RH  066%=      5-min Rain = 0
KDO1 140955Z 35009KT 03/M03 A3022 RMK A01 T00321025  RH  066%=      5-min Rain = 0
KDO1 140956Z 36009KT 03/M03 A3022 RMK A01 T00321025  RH  066%=      5-min Rain = 0
KDO1 140957Z 35009KT 03/M03 A3022 RMK A01 T00311025  RH  066%=      5-min Rain = 0
KDO1 140958Z 00008KT 03/M03 A3022 RMK A01 T00321025  RH  066%=      5-min Rain = 0
KDO1 140959Z 35009KT 03/M03 A3022 RMK A01 T00321025  RH  066%=      5-min Rain = 0
KDO1 141000Z 36009KT 03/M03 A3022 RMK A01 T00321025  RH  066%=      5-min Rain = 0
KDO1 141001Z 36008KT 03/M03 A3022 RMK A01 T00321025  RH  066%=      5-min Rain = 0
KDO1 141002Z 36008KT 03/M03 A3022 RMK A01 T00321025  RH  066%=      5-min Rain = 0
KDO1 141003Z 36009KT 03/M03 A3022 RMK A01 T00321025  RH  066%=      5-min Rain = 0
KDO1 141004Z 36009KT 03/M03 A3022 RMK A01 T00311025  RH  066%=      5-min Rain = 0
KDO1 141005Z 35008KT 03/M03 A3022 RMK A01 T00311026  RH  066%=      5-min Rain = 0
KDO1 141006Z 36009KT 03/M03 A3022 RMK A01 T00311026  RH  066%=      5-min Rain = 0
KDO1 141007Z 35009KT 03/M03 A3022 RMK A01 T00321026  RH  066%=      5-min Rain = 0
KDO1 141008Z 00010KT 03/M03 A3023 RMK A01 T00311026  RH  066%=      5-min Rain = 0
KDO1 141009Z 36008KT 03/M03 A3023 RMK A01 T00321026  RH  066%=      5-min Rain = 0
KDO1 141010Z 36009KT 03/M03 A3023 RMK A01 T00321026  RH  065%=      5-min Rain = 0
KDO1 141011Z 35008KT 03/M03 A3023 RMK A01 T00321027  RH  065%=      5-min Rain = 0
KDO1 141012Z 36008KT 03/M03 A3023 RMK A01 T00321027  RH  065%=      5-min Rain = 0
KDO1 141013Z 36008KT 03/M03 A3023 RMK A01 T00311027  RH  066%=      5-min Rain = 0
KDO1 141014Z 35009KT 03/M03 A3023 RMK A01 T00301028  RH  066%=      5-min Rain = 0
KDO1 141015Z 36008KT 03/M03 A3023 RMK A01 T00301028  RH  066%=      5-min Rain = 0
KDO1 141016Z 00009KT 03/M03 A3023 RMK A01 T00291028  RH  066%=      5-min Rain = 0
KDO1 141017Z 36009KT 03/M03 A3023 RMK A01 T00291028  RH  066%=      5-min Rain = 0
KDO1 141018Z 36009KT 03/M03 A3023 RMK A01 T00281028  RH  066%=      5-min Rain = 0
KDO1 141019Z 36008KT 03/M03 A3023 RMK A01 T00281029  RH  066%=      5-min Rain = 0
KDO1 141020Z 36008KT 03/M03 A3023 RMK A01 T00281029  RH  066%=      5-min Rain = 0
KDO1 141021Z 36008KT 03/M03 A3023 RMK A01 T00271029  RH  066%=      5-min Rain = 0
KDO1 141022Z 36008KT 03/M03 A3023 RMK A01 T00271029  RH  066%=      5-min Rain = 0
KDO1 141023Z 36008KT 03/M03 A3023 RMK A01 T00271029  RH  067%=      5-min Rain = 0
KDO1 141024Z 36009KT 03/M03 A3024 RMK A01 T00271029  RH  066%=      5-min Rain = 0
KDO1 141025Z 36009KT 03/M03 A3024 RMK A01 T00271030  RH  066%=      5-min Rain = 0
KDO1 141026Z 36009KT 03/M03 A3024 RMK A01 T00271030  RH  066%=      5-min Rain = 0
KDO1 141027Z 36009KT 03/M03 A3024 RMK A01 T00271030  RH  066%=      5-min Rain = 0
KDO1 141028Z 36009KT 03/M03 A3024 RMK A01 T00271030  RH  066%=      5-min Rain = 0
KDO1 141029Z 36009KT 03/M03 A3024 RMK A01 T00271030  RH  066%=      5-min Rain = 0
KDO1 141030Z 36009KT 03/M03 A3024 RMK A01 T00271030  RH  066%=      5-min Rain = 0
KDO1 141031Z 36008KT 03/M03 A3024 RMK A01 T00271031  RH  066%=      5-min Rain = 0
KDO1 141032Z 00009KT 03/M03 A3024 RMK A01 T00271031  RH  066%=      5-min Rain = 0
KDO1 141033Z 00009KT 03/M03 A3024 RMK A01 T00281030  RH  065%=      5-min Rain = 0
KDO1 141034Z 00009KT 03/M03 A3024 RMK A01 T00281031  RH  065%=      5-min Rain = 0
KDO1 141035Z 00009KT 03/M03 A3024 RMK A01 T00281031  RH  065%=      5-min Rain = 0
KDO1 141036Z 36009KT 03/M03 A3024 RMK A01 T00281031  RH  065%=      5-min Rain = 0
KDO1 141037Z 36009KT 03/M03 A3024 RMK A01 T00281031  RH  065%=      5-min Rain = 0
KDO1 141038Z 35009KT 03/M03 A3024 RMK A01 T00291031  RH  065%=      5-min Rain = 0
KDO1 141039Z 00009KT 03/M03 A3024 RMK A01 T00281031  RH  065%=      5-min Rain = 0
KDO1 141040Z 36008KT 03/M03 A3024 RMK A01 T00281031  RH  065%=      5-min Rain = 0
KDO1 141041Z 36008KT 03/M03 A3024 RMK A01 T00281031  RH  065%=      5-min Rain = 0
KDO1 141042Z 36009KT 03/M03 A3024 RMK A01 T00281031  RH  065%=      5-min Rain = 0
KDO1 141043Z 00009KT 03/M03 A3025 RMK A01 T00271031  RH  065%=      5-min Rain = 0
KDO1 141044Z 36009KT 03/M03 A3025 RMK A01 T00271031  RH  066%=      5-min Rain = 0
KDO1 141045Z 36009KT 03/M03 A3024 RMK A01 T00271031  RH  066%=      5-min Rain = 0
KDO1 141046Z 36010KT 03/M03 A3024 RMK A01 T00271031  RH  066%=      5-min Rain = 0
KDO1 141047Z 00008KT 03/M03 A3024 RMK A01 T00271031  RH  065%=      5-min Rain = 0
KDO1 141048Z 00009KT 03/M03 A3024 RMK A01 T00271031  RH  065%=      5-min Rain = 0
KDO1 141049Z 01008KT 03/M03 A3024 RMK A01 T00281031  RH  065%=      5-min Rain = 0
KDO1 141050Z 00009KT 03/M03 A3025 RMK A01 T00271031  RH  065%=      5-min Rain = 0
KDO1 141051Z 00009KT 03/M03 A3025 RMK A01 T00271031  RH  066%=      5-min Rain = 0
KDO1 141052Z 00009KT 03/M03 A3025 RMK A01 T00281030  RH  066%=      5-min Rain = 0
KDO1 141053Z 00009KT 03/M03 A3025 RMK A01 T00281030  RH  066%=      5-min Rain = 0
KDO1 141054Z 00009KT 03/M03 A3025 RMK A01 T00281030  RH  066%=      5-min Rain = 0
KDO1 141055Z 00009KT 03/M03 A3025 RMK A01 T00281030  RH  066%=      5-min Rain = 0
KDO1 141056Z 00009KT 03/M03 A3025 RMK A01 T00281030  RH  066%=      5-min Rain = 0
KDO1 141057Z 36009KT 03/M03 A3025 RMK A01 T00281030  RH  066%=      5-min Rain = 0
KDO1 141058Z 00010KT 03/M03 A3025 RMK A01 T00271030  RH  066%=      5-min Rain = 0
KDO1 141059Z 00010KT 03/M03 A3025 RMK A01 T00271030  RH  066%=      5-min Rain = 0
KDO1 141100Z 36010KT 03/M03 A3025 RMK A01 T00271030  RH  066%=      5-min Rain = 0
KDO1 141101Z 00010KT 03/M03 A3025 RMK A01 T00271031  RH  066%=      5-min Rain = 0
KDO1 141102Z 01009KT 03/M03 A3025 RMK A01 T00281030  RH  065%=      5-min Rain = 0
KDO1 141103Z 00009KT 03/M03 A3025 RMK A01 T00281031  RH  065%=      5-min Rain = 0
KDO1 141104Z 00009KT 03/M03 A3025 RMK A01 T00281031  RH  065%=      5-min Rain = 0
KDO1 141105Z 00010KT 03/M03 A3025 RMK A01 T00271031  RH  066%=      5-min Rain = 0
KDO1 141106Z 00010KT 03/M03 A3025 RMK A01 T00271031  RH  065%=      5-min Rain = 0
KDO1 141107Z 01009KT 03/M03 A3025 RMK A01 T00271031  RH  065%=      5-min Rain = 0
KDO1 141108Z 01009KT 03/M03 A3025 RMK A01 T00281031  RH  065%=      5-min Rain = 0
KDO1 141109Z 00008KT 03/M03 A3025 RMK A01 T00281031  RH  065%=      5-min Rain = 0
KDO1 141110Z 00010KT 03/M03 A3025 RMK A01 T00271032  RH  065%=      5-min Rain = 0
KDO1 141111Z 01009KT 03/M03 A3025 RMK A01 T00271032  RH  065%=      5-min Rain = 0
KDO1 141112Z 00009KT 03/M03 A3025 RMK A01 T00271031  RH  065%=      5-min Rain = 0
KDO1 141113Z 01009KT 03/M03 A3025 RMK A01 T00271032  RH  065%=      5-min Rain = 0
KDO1 141114Z 00008KT 03/M03 A3025 RMK A01 T00271032  RH  065%=      5-min Rain = 0
KDO1 141115Z 00009KT 03/M03 A3025 RMK A01 T00261032  RH  066%=      5-min Rain = 0
KDO1 141116Z 00009KT 03/M03 A3025 RMK A01 T00261032  RH  066%=      5-min Rain = 0
KDO1 141117Z 01009KT 03/M03 A3025 RMK A01 T00261032  RH  066%=      5-min Rain = 0
KDO1 141118Z 00008KT 03/M03 A3025 RMK A01 T00261032  RH  066%=      5-min Rain = 0
KDO1 141119Z 00009KT 03/M03 A3025 RMK A01 T00251032  RH  066%=      5-min Rain = 0
KDO1 141120Z 00009KT 03/M03 A3025 RMK A01 T00261032  RH  066%=      5-min Rain = 0
KDO1 141121Z 01009KT 03/M03 A3025 RMK A01 T00251032  RH  066%=      5-min Rain = 0
KDO1 141122Z 00010KT 03/M03 A3026 RMK A01 T00251032  RH  066%=      5-min Rain = 0
KDO1 141123Z 36008KT 03/M03 A3026 RMK A01 T00251032  RH  066%=      5-min Rain = 0
KDO1 141124Z 00008KT 03/M03 A3026 RMK A01 T00251032  RH  066%=      5-min Rain = 0
KDO1 141125Z 00008KT 02/M03 A3026 RMK A01 T00241032  RH  066%=      5-min Rain = 0
KDO1 141126Z 01009KT 02/M03 A3026 RMK A01 T00231032  RH  067%=      5-min Rain = 0
KDO1 141127Z 01008KT 02/M03 A3026 RMK A01 T00231032  RH  067%=      5-min Rain = 0
KDO1 141128Z 00008KT 02/M03 A3026 RMK A01 T00231032  RH  067%=      5-min Rain = 0
KDO1 141129Z 00009KT 02/M03 A3026 RMK A01 T00221032  RH  067%=      5-min Rain = 0
KDO1 141130Z 00010KT 02/M03 A3026 RMK A01 T00221032  RH  067%=      5-min Rain = 0
KDO1 141131Z 01011KT 02/M03 A3026 RMK A01 T00221032  RH  067%=      5-min Rain = 0
KDO1 141132Z 00011KT 02/M03 A3026 RMK A01 T00231032  RH  067%=      5-min Rain = 0
KDO1 141133Z 01009G14KT 02/M03 A3026 RMK A01 T00231032  RH  067%=      5-min Rain = 0
KDO1 141134Z 00009KT 02/M03 A3026 RMK A01 T00231032  RH  067%=      5-min Rain = 0
KDO1 141135Z 00010KT 02/M03 A3026 RMK A01 T00231031  RH  067%=      5-min Rain = 0
KDO1 141136Z 01009KT 02/M03 A3026 RMK A01 T00231031  RH  067%=      5-min Rain = 0
KDO1 141137Z 00009KT 02/M03 A3026 RMK A01 T00231031  RH  067%=      5-min Rain = 0
KDO1 141138Z 01009KT 02/M03 A3026 RMK A01 T00231031  RH  067%=      5-min Rain = 0
KDO1 141139Z 01009KT 02/M03 A3026 RMK A01 T00231031  RH  067%=      5-min Rain = 0
KDO1 141140Z 00008KT 02/M03 A3026 RMK A01 T00231031  RH  068%=      5-min Rain = 0
KDO1 141141Z 01009KT 02/M03 A3026 RMK A01 T00221031  RH  068%=      5-min Rain = 0
KDO1 141142Z 01009KT 02/M03 A3026 RMK A01 T00221031  RH  068%=      5-min Rain = 0
KDO1 141143Z 00009KT 02/M03 A3026 RMK A01 T00221031  RH  068%=      5-min Rain = 0
KDO1 141144Z 00009KT 02/M03 A3026 RMK A01 T00221031  RH  068%=      5-min Rain = 0
KDO1 141145Z 00009KT 02/M03 A3026 RMK A01 T00221031  RH  068%=      5-min Rain = 0
KDO1 141146Z 36010KT 02/M03 A3026 RMK A01 T00221031  RH  068%=      5-min Rain = 0
KDO1 141147Z 00008KT 02/M03 A3026 RMK A01 T00221031  RH  068%=      5-min Rain = 0
KDO1 141148Z 00007KT 02/M03 A3026 RMK A01 T00211031  RH  068%=      5-min Rain = 0
KDO1 141149Z 01007KT 02/M03 A3026 RMK A01 T00221030  RH  068%=      5-min Rain = 0
KDO1 141150Z 00008KT 02/M03 A3027 RMK A01 T00211031  RH  069%=      5-min Rain = 0
KDO1 141151Z 00007KT 02/M03 A3027 RMK A01 T00211030  RH  069%=      5-min Rain = 0
KDO1 141152Z 00008KT 02/M03 A3027 RMK A01 T00201030  RH  069%=      5-min Rain = 0
KDO1 141153Z 00007KT 02/M03 A3027 RMK A01 T00201030  RH  069%=      5-min Rain = 0
KDO1 141154Z 36008KT 02/M03 A3027 RMK A01 T00201030  RH  069%=      5-min Rain = 0
KDO1 141155Z 36009KT 02/M03 A3027 RMK A01 T00201030  RH  070%=      5-min Rain = 0
KDO1 141156Z 00007KT 02/M03 A3027 RMK A01 T00201030  RH  070%=      5-min Rain = 0
KDO1 141157Z 00008KT 02/M03 A3027 RMK A01 T00191029  RH  070%=      5-min Rain = 0
KDO1 141158Z 00007KT 02/M03 A3027 RMK A01 T00191029  RH  070%=      5-min Rain = 0
KDO1 141159Z 36008KT 02/M03 A3027 RMK A01 T00191029  RH  071%=      5-min Rain = 0
KDO1 141200Z 00007KT 02/M03 A3027 RMK A01 T00191029  RH  071%=      5-min Rain = 0
KDO1 141201Z 00007KT 02/M03 A3027 RMK A01 T00191029  RH  071%=      5-min Rain = 0
KDO1 141202Z 01007KT 02/M03 A3028 RMK A01 T00181029  RH  071%=      5-min Rain = 0
KDO1 141203Z 00006KT 02/M03 A3028 RMK A01 T00181028  RH  071%=      5-min Rain = 0
KDO1 141204Z 00008KT 02/M03 A3028 RMK A01 T00181028  RH  072%=      5-min Rain = 0
KDO1 141205Z 01008KT 02/M03 A3028 RMK A01 T00171028  RH  072%=      5-min Rain = 0
KDO1 141206Z 00009KT 02/M03 A3028 RMK A01 T00171028  RH  072%=      5-min Rain = 0
KDO1 141207Z 36009KT 02/M03 A3028 RMK A01 T00171028  RH  072%=      5-min Rain = 0
KDO1 141208Z 00009KT 02/M03 A3028 RMK A01 T00171027  RH  072%=      5-min Rain = 0
KDO1 141209Z 36008KT 02/M03 A3028 RMK A01 T00171027  RH  073%=      5-min Rain = 0
KDO1 141210Z 00007KT 02/M03 A3028 RMK A01 T00171027  RH  073%=      5-min Rain = 0
KDO1 141211Z 00008KT 02/M03 A3027 RMK A01 T00161027  RH  073%=      5-min Rain = 0
KDO1 141212Z 00007KT 02/M03 A3027 RMK A01 T00161027  RH  073%=      5-min Rain = 0
KDO1 141213Z 00007KT 02/M03 A3027 RMK A01 T00151027  RH  073%=      5-min Rain = 0
KDO1 141214Z 36007KT 02/M03 A3027 RMK A01 T00151027  RH  074%=      5-min Rain = 0
KDO1 141215Z 00008KT 01/M03 A3027 RMK A01 T00141027  RH  074%=      5-min Rain = 0
KDO1 141216Z 36007KT 01/M03 A3027 RMK A01 T00141026  RH  074%=      5-min Rain = 0
KDO1 141217Z 00007KT 01/M03 A3027 RMK A01 T00141026  RH  074%=      5-min Rain = 0
KDO1 141218Z 36007KT 01/M03 A3027 RMK A01 T00141026  RH  075%=      5-min Rain = 0
KDO1 141219Z 00007KT 01/M03 A3027 RMK A01 T00141026  RH  075%=      5-min Rain = 0
KDO1 141220Z 00006KT 01/M03 A3027 RMK A01 T00131026  RH  075%=      5-min Rain = 0
KDO1 141221Z 00006KT 01/M03 A3028 RMK A01 T00131026  RH  075%=      5-min Rain = 0
KDO1 141222Z 00006KT 01/M03 A3028 RMK A01 T00121026  RH  076%=      5-min Rain = 0
KDO1 141223Z 36007KT 01/M03 A3028 RMK A01 T00121026  RH  076%=      5-min Rain = 0
KDO1 141224Z 36007KT 01/M03 A3028 RMK A01 T00121026  RH  076%=      5-min Rain = 0
KDO1 141225Z 36007KT 01/M03 A3028 RMK A01 T00111026  RH  076%=      5-min Rain = 0
KDO1 141226Z 36006KT 01/M03 A3028 RMK A01 T00111026  RH  077%=      5-min Rain = 0
KDO1 141227Z 36007KT 01/M03 A3028 RMK A01 T00101026  RH  077%=      5-min Rain = 0
KDO1 141228Z 36007KT 01/M03 A3028 RMK A01 T00101026  RH  077%=      5-min Rain = 0
KDO1 141229Z 00006KT 01/M03 A3028 RMK A01 T00101026  RH  077%=      5-min Rain = 0
KDO1 141230Z 36007KT 01/M03 A3028 RMK A01 T00091025  RH  078%=      5-min Rain = 0
KDO1 141231Z 36007KT 01/M03 A3028 RMK A01 T00091025  RH  077%=      5-min Rain = 0
KDO1 141232Z 36006KT 01/M03 A3028 RMK A01 T00101025  RH  078%=      5-min Rain = 0
KDO1 141233Z 35006KT 01/M03 A3029 RMK A01 T00101025  RH  078%=      5-min Rain = 0
KDO1 141234Z 35006KT 01/M03 A3029 RMK A01 T00091025  RH  078%=      5-min Rain = 0
KDO1 141235Z 35006KT 01/M03 A3029 RMK A01 T00081025  RH  078%=      5-min Rain = 0
KDO1 141236Z 35006KT 01/M03 A3029 RMK A01 T00081025  RH  078%=      5-min Rain = 0
KDO1 141237Z 35006KT 01/M03 A3029 RMK A01 T00081026  RH  078%=      5-min Rain = 0
KDO1 141238Z 35006KT 01/M03 A3029 RMK A01 T00071026  RH  078%=      5-min Rain = 0
KDO1 141239Z 35006KT 01/M03 A3029 RMK A01 T00061027  RH  079%=      5-min Rain = 0
KDO1 141240Z 35005KT 01/M03 A3029 RMK A01 T00051026  RH  079%=      5-min Rain = 0
KDO1 141241Z 35006KT 01/M03 A3029 RMK A01 T00051026  RH  079%=      5-min Rain = 0
KDO1 141242Z 34006KT 01/M03 A3029 RMK A01 T00051026  RH  080%=      5-min Rain = 0
KDO1 141243Z 35006KT 01/M03 A3029 RMK A01 T00051026  RH  080%=      5-min Rain = 0
KDO1 141244Z 34006KT 01/M03 A3029 RMK A01 T00051025  RH  080%=      5-min Rain = 0
KDO1 141245Z 35006KT 01/M03 A303 RMK A01 T00051025  RH  081%=      5-min Rain = 0
KDO1 141246Z 34006KT 01/M03 A303 RMK A01 T00051025  RH  081%=      5-min Rain = 0
KDO1 141247Z 35005KT 01/M02 A303 RMK A01 T00051024  RH  081%=      5-min Rain = 0
KDO1 141248Z 35007KT 01/M02 A303 RMK A01 T00051024  RH  081%=      5-min Rain = 0
KDO1 141249Z 34006KT 01/M02 A303 RMK A01 T00061023  RH  081%=      5-min Rain = 0
KDO1 141250Z 35006KT 01/M02 A303 RMK A01 T00061023  RH  081%=      5-min Rain = 0
KDO1 141251Z 35006KT 01/M02 A303 RMK A01 T00061023  RH  081%=      5-min Rain = 0
KDO1 141252Z 34006KT 01/M02 A303 RMK A01 T00061023  RH  081%=      5-min Rain = 0
KDO1 141253Z 35006KT 01/M02 A303 RMK A01 T00061022  RH  081%=      5-min Rain = 0
KDO1 141254Z 34006KT 01/M02 A303 RMK A01 T00061022  RH  081%=      5-min Rain = 0
KDO1 141255Z 35006KT 01/M02 A303 RMK A01 T00061022  RH  081%=      5-min Rain = 0
KDO1 141256Z 34007KT 01/M02 A303 RMK A01 T00061022  RH  081%=      5-min Rain = 0
KDO1 141257Z 35006KT 01/M02 A303 RMK A01 T00061022  RH  081%=      5-min Rain = 0
KDO1 141258Z 35006KT 01/M02 A303 RMK A01 T00061022  RH  082%=      5-min Rain = 0
KDO1 141259Z 34007KT 01/M02 A303 RMK A01 T00061021  RH  082%=      5-min Rain = 0
KDO1 141300Z 35007KT 01/M02 A303 RMK A01 T00061021  RH  082%=      5-min Rain = 0
KDO1 141301Z 35007KT 01/M02 A303 RMK A01 T00061021  RH  082%=      5-min Rain = 0
KDO1 141302Z 34007KT 01/M02 A3031 RMK A01 T00061021  RH  082%=      5-min Rain = 0
KDO1 141303Z 35007KT 01/M02 A3031 RMK A01 T00071020  RH  082%=      5-min Rain = 0
KDO1 141304Z 35006KT 01/M02 A3031 RMK A01 T00071021  RH  082%=      5-min Rain = 0
KDO1 141305Z 35006KT 01/M02 A3031 RMK A01 T00061021  RH  082%=      5-min Rain = 0
KDO1 141306Z 35006KT 01/M02 A3031 RMK A01 T00061022  RH  082%=      5-min Rain = 0
KDO1 141307Z 35006KT 01/M02 A3031 RMK A01 T00051022  RH  082%=      5-min Rain = 0
KDO1 141308Z 35005KT 01/M02 A3031 RMK A01 T00051022  RH  082%=      5-min Rain = 0
KDO1 141309Z 34005KT 01/M02 A3031 RMK A01 T00051022  RH  082%=      5-min Rain = 0
KDO1 141310Z 35006KT 00/M02 A3031 RMK A01 T00041023  RH  082%=      5-min Rain = 0
KDO1 141311Z 34006KT 00/M02 A3031 RMK A01 T00041022  RH  082%=      5-min Rain = 0
KDO1 141312Z 34006KT 00/M02 A3031 RMK A01 T00041022  RH  083%=      5-min Rain = 0
KDO1 141313Z 35007KT 00/M02 A3031 RMK A01 T00041022  RH  082%=      5-min Rain = 0
KDO1 141314Z 35006KT 00/M02 A3031 RMK A01 T00041022  RH  082%=      5-min Rain = 0
KDO1 141315Z 35006KT 00/M02 A3031 RMK A01 T00041023  RH  082%=      5-min Rain = 0
KDO1 141316Z 35005KT 00/M02 A3031 RMK A01 T00041023  RH  082%=      5-min Rain = 0
KDO1 141317Z 35007KT 00/M02 A3031 RMK A01 T00041023  RH  082%=      5-min Rain = 0
KDO1 141318Z 35006KT 00/M02 A3031 RMK A01 T00041022  RH  082%=      5-min Rain = 0
KDO1 141319Z 35006KT 00/M02 A3032 RMK A01 T00041022  RH  082%=      5-min Rain = 0
KDO1 141320Z 35007KT 00/M02 A3032 RMK A01 T00041023  RH  082%=      5-min Rain = 0
KDO1 141321Z 35007KT 00/M02 A3032 RMK A01 T00041023  RH  082%=      5-min Rain = 0
KDO1 141322Z 35007KT 00/M02 A3032 RMK A01 T00041022  RH  082%=      5-min Rain = 0
KDO1 141323Z 35008KT 00/M02 A3032 RMK A01 T00041022  RH  082%=      5-min Rain = 0
KDO1 141324Z 35007KT 00/M02 A3032 RMK A01 T00041022  RH  082%=      5-min Rain = 0
KDO1 141325Z 35008KT 01/M02 A3032 RMK A01 T00051023  RH  082%=      5-min Rain = 0
KDO1 141326Z 35008KT 01/M02 A3032 RMK A01 T00051023  RH  082%=      5-min Rain = 0
KDO1 141327Z 35008KT 01/M02 A3032 RMK A01 T00051022  RH  082%=      5-min Rain = 0
KDO1 141328Z 35009KT 01/M02 A3032 RMK A01 T00051022  RH  082%=      5-min Rain = 0
KDO1 141329Z 35008KT 01/M02 A3032 RMK A01 T00051022  RH  082%=      5-min Rain = 0
KDO1 141330Z 36007KT 01/M02 A3032 RMK A01 T00051022  RH  082%=      5-min Rain = 0
KDO1 141331Z 35008KT 01/M02 A3032 RMK A01 T00061022  RH  082%=      5-min Rain = 0
KDO1 141332Z 35007KT 01/M02 A3032 RMK A01 T00061022  RH  082%=      5-min Rain = 0
KDO1 141333Z 35008KT 01/M02 A3032 RMK A01 T00061022  RH  082%=      5-min Rain = 0
KDO1 141334Z 35007KT 01/M02 A3032 RMK A01 T00051022  RH  082%=      5-min Rain = 0
KDO1 141335Z 35008KT 01/M02 A3032 RMK A01 T00051022  RH  082%=      5-min Rain = 0
KDO1 141336Z 35006KT 01/M02 A3032 RMK A01 T00051022  RH  082%=      5-min Rain = 0
KDO1 141337Z 34007KT 01/M02 A3032 RMK A01 T00061022  RH  082%=      5-min Rain = 0
KDO1 141338Z 35007KT 01/M02 A3033 RMK A01 T00061022  RH  082%=      5-min Rain = 0
KDO1 141339Z 35008KT 01/M02 A3033 RMK A01 T00061022  RH  082%=      5-min Rain = 0
KDO1 141340Z 35008KT 01/M02 A3033 RMK A01 T00061022  RH  082%=      5-min Rain = 0
KDO1 141341Z 35007KT 01/M02 A3033 RMK A01 T00061022  RH  082%=      5-min Rain = 0
KDO1 141342Z 34006KT 01/M02 A3033 RMK A01 T00071021  RH  082%=      5-min Rain = 0
KDO1 141343Z 35007KT 01/M02 A3033 RMK A01 T00071021  RH  082%=      5-min Rain = 0
KDO1 141344Z 34008KT 01/M02 A3033 RMK A01 T00081021  RH  081%=      5-min Rain = 0
KDO1 141345Z 35008KT 01/M02 A3033 RMK A01 T00081021  RH  081%=      5-min Rain = 0
KDO1 141346Z 35007KT 01/M02 A3033 RMK A01 T00081020  RH  081%=      5-min Rain = 0
KDO1 141347Z 34008KT 01/M02 A3033 RMK A01 T00091020  RH  081%=      5-min Rain = 0
KDO1 141348Z 35007KT 01/M02 A3033 RMK A01 T00101019  RH  081%=      5-min Rain = 0
KDO1 141349Z 34007KT 01/M02 A3033 RMK A01 T00101019  RH  081%=      5-min Rain = 0
KDO1 141350Z 34008KT 01/M02 A3034 RMK A01 T00111019  RH  080%=      5-min Rain = 0
KDO1 141351Z 35007KT 01/M02 A3034 RMK A01 T00121019  RH  080%=      5-min Rain = 0
KDO1 141352Z 34007KT 01/M02 A3034 RMK A01 T00121019  RH  080%=      5-min Rain = 0
KDO1 141353Z 34006KT 01/M02 A3034 RMK A01 T00121018  RH  080%=      5-min Rain = 0
KDO1 141354Z 35008KT 01/M02 A3034 RMK A01 T00131018  RH  080%=      5-min Rain = 0
KDO1 141355Z 35008KT 01/M02 A3034 RMK A01 T00141018  RH  080%=      5-min Rain = 0
KDO1 141356Z 35006KT 01/M02 A3034 RMK A01 T00141018  RH  079%=      5-min Rain = 0
KDO1 141357Z 35008KT 02/M02 A3034 RMK A01 T00151017  RH  079%=      5-min Rain = 0
KDO1 141358Z 35008KT 02/M02 A3034 RMK A01 T00151017  RH  079%=      5-min Rain = 0
KDO1 141359Z 34007KT 02/M02 A3034 RMK A01 T00161017  RH  079%=      5-min Rain = 0
KDO1 141400Z 35008KT 02/M02 A3034 RMK A01 T00171016  RH  079%=      5-min Rain = 0
KDO1 141401Z 35006KT 02/M02 A3034 RMK A01 T00171016  RH  078%=      5-min Rain = 0
KDO1 141402Z 35007KT 02/M02 A3034 RMK A01 T00181016  RH  078%=      5-min Rain = 0
KDO1 141403Z 35007KT 02/M02 A3034 RMK A01 T00191015  RH  078%=      5-min Rain = 0
KDO1 141404Z 35008KT 02/M02 A3034 RMK A01 T00191015  RH  078%=      5-min Rain = 0
KDO1 141405Z 35006KT 02/M02 A3034 RMK A01 T00201015  RH  078%=      5-min Rain = 0
KDO1 141406Z 35007KT 02/M02 A3034 RMK A01 T00211015  RH  077%=      5-min Rain = 0
KDO1 141407Z 35007KT 02/M02 A3034 RMK A01 T00211015  RH  077%=      5-min Rain = 0
KDO1 141408Z 35008KT 02/M01 A3034 RMK A01 T00221014  RH  077%=      5-min Rain = 0
KDO1 141409Z 35007KT 02/M02 A3034 RMK A01 T00221015  RH  077%=      5-min Rain = 0
KDO1 141410Z 35007KT 02/M02 A3034 RMK A01 T00221015  RH  076%=      5-min Rain = 0
KDO1 141411Z 35007KT 02/M01 A3034 RMK A01 T00231014  RH  076%=      5-min Rain = 0
KDO1 141412Z 35007KT 02/M01 A3034 RMK A01 T00241014  RH  076%=      5-min Rain = 0
KDO1 141413Z 35007KT 02/M01 A3034 RMK A01 T00241014  RH  076%=      5-min Rain = 0
KDO1 141414Z 35008KT 03/M01 A3034 RMK A01 T00251014  RH  076%=      5-min Rain = 0
KDO1 141415Z 35005KT 03/M01 A3034 RMK A01 T00251014  RH  075%=      5-min Rain = 0
KDO1 141416Z 35006KT 03/M01 A3035 RMK A01 T00261014  RH  075%=      5-min Rain = 0
KDO1 141417Z 35007KT 03/M01 A3035 RMK A01 T00271013  RH  075%=      5-min Rain = 0
KDO1 141418Z 35007KT 03/M01 A3035 RMK A01 T00281013  RH  075%=      5-min Rain = 0
KDO1 141419Z 35004KT 03/M01 A3035 RMK A01 T00281013  RH  074%=      5-min Rain = 0
KDO1 141420Z 36007KT 03/M01 A3035 RMK A01 T00291012  RH  074%=      5-min Rain = 0
KDO1 141421Z 35007KT 03/M01 A3035 RMK A01 T00301012  RH  074%=      5-min Rain = 0
KDO1 141422Z 35007KT 03/M01 A3035 RMK A01 T00301012  RH  074%=      5-min Rain = 0
KDO1 141423Z 35006KT 03/M01 A3035 RMK A01 T00311012  RH  074%=      5-min Rain = 0
KDO1 141424Z 35008KT 03/M01 A3035 RMK A01 T00321011  RH  073%=      5-min Rain = 0
KDO1 141425Z 35007KT 03/M01 A3035 RMK A01 T00331011  RH  073%=      5-min Rain = 0
KDO1 141426Z 35007KT 03/M01 A3035 RMK A01 T00341010  RH  073%=      5-min Rain = 0
KDO1 141427Z 34008KT 04/M01 A3035 RMK A01 T00351010  RH  072%=      5-min Rain = 0
KDO1 141428Z 35007KT 04/M01 A3035 RMK A01 T00371009  RH  072%=      5-min Rain = 0
KDO1 141429Z 35007KT 04/M01 A3035 RMK A01 T00381009  RH  071%=      5-min Rain = 0
KDO1 141430Z 36008KT 04/M01 A3035 RMK A01 T00391009  RH  071%=      5-min Rain = 0
KDO1 141431Z 35005KT 04/M01 A3035 RMK A01 T00391009  RH  071%=      5-min Rain = 0
KDO1 141432Z 36006KT 04/M01 A3035 RMK A01 T00411008  RH  071%=      5-min Rain = 0
KDO1 141433Z 36008KT 04/M01 A3035 RMK A01 T00421008  RH  070%=      5-min Rain = 0
KDO1 141434Z 36008KT 04/M01 A3035 RMK A01 T00431007  RH  070%=      5-min Rain = 0
KDO1 141435Z 00007KT 04/M01 A3036 RMK A01 T00441007  RH  069%=      5-min Rain = 0
KDO1 141436Z 36007KT 05/M01 A3036 RMK A01 T00461006  RH  069%=      5-min Rain = 0
KDO1 141437Z 00007KT 05/M01 A3036 RMK A01 T00481005  RH  068%=      5-min Rain = 0
KDO1 141438Z 01007KT 05/M01 A3036 RMK A01 T00491006  RH  068%=      5-min Rain = 0
KDO1 141439Z 01008KT 05/M01 A3036 RMK A01 T00501005  RH  067%=      5-min Rain = 0
KDO1 141440Z 01010KT 05/M01 A3036 RMK A01 T00511005  RH  067%=      5-min Rain = 0
KDO1 141441Z 01007KT 05/M00 A3036 RMK A01 T00531004  RH  067%=      5-min Rain = 0
KDO1 141442Z 01010KT 06/M00 A3036 RMK A01 T00551003  RH  066%=      5-min Rain = 0
KDO1 141443Z 01010KT 06/M00 A3036 RMK A01 T00571004  RH  065%=      5-min Rain = 0
KDO1 141444Z 01010KT 06/M00 A3036 RMK A01 T00581004  RH  064%=      5-min Rain = 0
KDO1 141445Z 02009KT 06/M00 A3036 RMK A01 T00591004  RH  064%=      5-min Rain = 0
KDO1 141446Z 01009KT 06/M00 A3036 RMK A01 T00601003  RH  064%=      5-min Rain = 0
KDO1 141447Z 01008KT 06/M00 A3036 RMK A01 T00611003  RH  063%=      5-min Rain = 0
KDO1 141448Z 01011KT 06/M00 A3036 RMK A01 T00621003  RH  063%=      5-min Rain = 0
KDO1 141449Z 02011KT 06/M00 A3037 RMK A01 T00631003  RH  063%=      5-min Rain = 0
KDO1 141450Z 01010KT 06/M00 A3037 RMK A01 T00641003  RH  062%=      5-min Rain = 0
KDO1 141451Z 00010KT 07/M00 A3037 RMK A01 T00651003  RH  062%=      5-min Rain = 0
KDO1 141452Z 01006G12KT 07/M00 A3037 RMK A01 T00661003  RH  062%=      5-min Rain = 0
KDO1 141453Z 01008KT 07/M00 A3037 RMK A01 T00671002  RH  062%=      5-min Rain = 0
KDO1 141454Z 01011KT 07/M00 A3037 RMK A01 T00681002  RH  061%=      5-min Rain = 0
KDO1 141455Z 02011KT 07/M00 A3037 RMK A01 T00691003  RH  060%=      5-min Rain = 0
KDO1 141456Z 02009KT 07/M00 A3037 RMK A01 T00691003  RH  060%=      5-min Rain = 0
KDO1 141457Z 02010KT 07/M00 A3037 RMK A01 T00691003  RH  060%=      5-min Rain = 0
KDO1 141458Z 02012KT 07/M00 A3037 RMK A01 T00701003  RH  060%=      5-min Rain = 0
KDO1 141459Z 02012KT 07/M00 A3037 RMK A01 T00701004  RH  059%=      5-min Rain = 0
KDO1 141500Z 02009KT 07/M00 A3037 RMK A01 T00701004  RH  059%=      5-min Rain = 0
KDO1 141501Z 02008KT 07/M00 A3037 RMK A01 T00711003  RH  059%=      5-min Rain = 0
KDO1 141502Z 02009KT 07/M00 A3037 RMK A01 T00721002  RH  059%=      5-min Rain = 0
KDO1 141503Z 02011KT 07/M00 A3037 RMK A01 T00731002  RH  059%=      5-min Rain = 0
KDO1 141504Z 03012G18KT 07/M00 A3037 RMK A01 T00741003  RH  058%=      5-min Rain = 0
KDO1 141505Z 03009KT 07/M00 A3037 RMK A01 T00731003  RH  058%=      5-min Rain = 0
KDO1 141506Z 03011KT 07/M00 A3037 RMK A01 T00731003  RH  058%=      5-min Rain = 0
KDO1 141507Z 02011KT 07/M00 A3038 RMK A01 T00741003  RH  058%=      5-min Rain = 0
KDO1 141508Z 03010G15KT 08/M00 A3038 RMK A01 T00751004  RH  058%=      5-min Rain = 0
KDO1 141509Z 03009KT 08/M00 A3038 RMK A01 T00751004  RH  057%=      5-min Rain = 0
KDO1 141510Z 02011KT 08/M00 A3038 RMK A01 T00751004  RH  057%=      5-min Rain = 0
KDO1 141511Z 02011KT 08/M00 A3038 RMK A01 T00761004  RH  057%=      5-min Rain = 0
KDO1 141512Z 03011G16KT 08/M01 A3038 RMK A01 T00761005  RH  056%=      5-min Rain = 0
KDO1 141513Z 02011G16KT 08/M01 A3038 RMK A01 T00761006  RH  056%=      5-min Rain = 0
KDO1 141514Z 02009KT 08/M01 A3038 RMK A01 T00771006  RH  056%=      5-min Rain = 0
KDO1 141515Z 02013KT 08/M01 A3038 RMK A01 T00771006  RH  056%=      5-min Rain = 0
KDO1 141516Z 02012KT 08/M01 A3038 RMK A01 T00761006  RH  056%=      5-min Rain = 0
KDO1 141517Z 04010KT 08/M01 A3038 RMK A01 T00771006  RH  056%=      5-min Rain = 0
KDO1 141518Z 03008KT 08/M01 A3038 RMK A01 T00781005  RH  055%=      5-min Rain = 0
KDO1 141519Z 02012KT 08/M01 A3038 RMK A01 T00801006  RH  055%=      5-min Rain = 0
KDO1 141520Z 03012KT 08/M01 A3038 RMK A01 T00801006  RH  054%=      5-min Rain = 0
KDO1 141521Z 03012KT 08/M01 A3039 RMK A01 T00801006  RH  054%=      5-min Rain = 0
KDO1 141522Z 02009KT 08/M01 A3039 RMK A01 T00801006  RH  055%=      5-min Rain = 0
KDO1 141523Z 03010G15KT 08/M01 A3039 RMK A01 T00791007  RH  055%=      5-min Rain = 0
KDO1 141524Z 03014KT 08/M01 A3039 RMK A01 T00801007  RH  054%=      5-min Rain = 0
KDO1 141525Z 04013KT 08/M01 A3039 RMK A01 T00801008  RH  054%=      5-min Rain = 0
KDO1 141526Z 04011KT 08/M01 A3039 RMK A01 T00801008  RH  054%=      5-min Rain = 0
KDO1 141527Z 04011KT 08/M01 A3039 RMK A01 T00801007  RH  054%=      5-min Rain = 0
KDO1 141528Z 03013KT 08/M01 A3039 RMK A01 T00811007  RH  054%=      5-min Rain = 0
KDO1 141529Z 03011KT 08/M01 A3039 RMK A01 T00811008  RH  053%=      5-min Rain = 0
KDO1 141530Z 03010KT 08/M01 A3039 RMK A01 T00811008  RH  053%=      5-min Rain = 0
KDO1 141531Z 03012KT 08/M01 A3039 RMK A01 T00811008  RH  053%=      5-min Rain = 0
KDO1 141532Z 02008KT 08/M01 A3039 RMK A01 T00821007  RH  053%=      5-min Rain = 0
KDO1 141533Z 03011G16KT 08/M01 A3039 RMK A01 T00831007  RH  053%=      5-min Rain = 0
KDO1 141534Z 04011KT 08/M01 A3039 RMK A01 T00841007  RH  053%=      5-min Rain = 0
KDO1 141535Z 04009G15KT 08/M01 A3039 RMK A01 T00841006  RH  053%=      5-min Rain = 0
KDO1 141536Z 04014KT 09/M01 A3039 RMK A01 T00851007  RH  052%=      5-min Rain = 0
KDO1 141537Z 03012KT 08/M01 A3039 RMK A01 T00841008  RH  052%=      5-min Rain = 0
KDO1 141538Z 03009KT 08/M01 A3039 RMK A01 T00831008  RH  053%=      5-min Rain = 0
KDO1 141539Z 03011KT 08/M01 A304 RMK A01 T00831007  RH  053%=      5-min Rain = 0
KDO1 141540Z 03013KT 08/M01 A304 RMK A01 T00831009  RH  052%=      5-min Rain = 0
KDO1 141541Z 03013KT 08/M01 A304 RMK A01 T00811008  RH  053%=      5-min Rain = 0
KDO1 141542Z 04013KT 08/M01 A304 RMK A01 T00811008  RH  053%=      5-min Rain = 0
KDO1 141543Z 04015KT 08/M01 A304 RMK A01 T00811008  RH  053%=      5-min Rain = 0
KDO1 141544Z 04011KT 08/M01 A304 RMK A01 T00811009  RH  053%=      5-min Rain = 0
KDO1 141545Z 03013KT 08/M01 A304 RMK A01 T00811008  RH  054%=      5-min Rain = 0
KDO1 141546Z 04015KT 08/M01 A304 RMK A01 T00811008  RH  053%=      5-min Rain = 0
KDO1 141547Z 04014KT 08/M01 A304 RMK A01 T00811008  RH  053%=      5-min Rain = 0
KDO1 141548Z 03014KT 08/M01 A304 RMK A01 T00821008  RH  053%=      5-min Rain = 0
KDO1 141549Z 02015KT 08/M01 A304 RMK A01 T00821008  RH  053%=      5-min Rain = 0
KDO1 141550Z 02012KT 08/M01 A304 RMK A01 T00821008  RH  053%=      5-min Rain = 0
KDO1 141551Z 02010KT 08/M01 A304 RMK A01 T00821008  RH  053%=      5-min Rain = 0
KDO1 141552Z 02011KT 08/M01 A304 RMK A01 T00821007  RH  053%=      5-min Rain = 0
KDO1 141553Z 03009KT 08/M01 A304 RMK A01 T00831007  RH  053%=      5-min Rain = 0
KDO1 141554Z 04011KT 09/M01 A304 RMK A01 T00851006  RH  053%=      5-min Rain = 0
KDO1 141555Z 04011KT 09/M01 A304 RMK A01 T00861006  RH  053%=      5-min Rain = 0
KDO1 141556Z 04012KT 09/M01 A304 RMK A01 T00861006  RH  052%=      5-min Rain = 0
KDO1 141557Z 04011KT 09/M01 A304 RMK A01 T00851007  RH  052%=      5-min Rain = 0
KDO1 141558Z 04013KT 08/M01 A304 RMK A01 T00841007  RH  053%=      5-min Rain = 0
KDO1 141559Z 04012KT 08/M01 A304 RMK A01 T00831007  RH  053%=      5-min Rain = 0
KDO1 141600Z 04013KT 08/M01 A304 RMK A01 T00831007  RH  053%=      5-min Rain = 0
KDO1 141601Z 04012KT 08/M01 A304 RMK A01 T00831006  RH  053%=      5-min Rain = 0
KDO1 141602Z 03010KT 08/M01 A304 RMK A01 T00831006  RH  053%=      5-min Rain = 0
KDO1 141603Z 04010KT 09/M01 A304 RMK A01 T00851005  RH  053%=      5-min Rain = 0
KDO1 141604Z 04007KT 09/M01 A304 RMK A01 T00851005  RH  053%=      5-min Rain = 0
KDO1 141605Z 03010KT 09/M00 A304 RMK A01 T00871004  RH  053%=      5-min Rain = 0
KDO1 141606Z 02010KT 09/M01 A304 RMK A01 T00881006  RH  052%=      5-min Rain = 0
KDO1 141607Z 03008KT 09/M01 A304 RMK A01 T00891006  RH  052%=      5-min Rain = 0
KDO1 141608Z 05009KT 09/M01 A304 RMK A01 T00901006  RH  051%=      5-min Rain = 0
KDO1 141609Z 05011KT 09/M01 A304 RMK A01 T00911006  RH  050%=      5-min Rain = 0
KDO1 141610Z 05011KT 09/M01 A304 RMK A01 T00911007  RH  050%=      5-min Rain = 0
KDO1 141611Z 04010KT 09/M01 A304 RMK A01 T00911007  RH  050%=      5-min Rain = 0
KDO1 141612Z 04010KT 09/M01 A3041 RMK A01 T00921006  RH  050%=      5-min Rain = 0
KDO1 141613Z 04010KT 09/M01 A3041 RMK A01 T00941007  RH  049%=      5-min Rain = 0
KDO1 141614Z 03010KT 09/M01 A3041 RMK A01 T00921009  RH  049%=      5-min Rain = 0
KDO1 141615Z 04011KT 09/M01 A3041 RMK A01 T00901009  RH  050%=      5-min Rain = 0
KDO1 141616Z 03009KT 09/M01 A304 RMK A01 T00911008  RH  050%=      5-min Rain = 0
KDO1 141617Z 04011KT 09/M01 A304 RMK A01 T00921008  RH  050%=      5-min Rain = 0
KDO1 141618Z 05009KT 09/M01 A304 RMK A01 T00921008  RH  049%=      5-min Rain = 0
KDO1 141619Z 04012KT 09/M01 A3041 RMK A01 T00921008  RH  049%=      5-min Rain = 0
KDO1 141620Z 05012KT 09/M01 A3041 RMK A01 T00921009  RH  049%=      5-min Rain = 0
KDO1 141621Z 05012KT 09/M01 A3041 RMK A01 T00911008  RH  050%=      5-min Rain = 0
KDO1 141622Z 04012KT 09/M01 A3041 RMK A01 T00921008  RH  050%=      5-min Rain = 0
KDO1 141623Z 04009KT 09/M01 A3041 RMK A01 T00921008  RH  049%=      5-min Rain = 0
KDO1 141624Z 04010KT 09/M01 A3041 RMK A01 T00921007  RH  050%=      5-min Rain = 0
KDO1 141625Z 04010KT 09/M01 A3041 RMK A01 T00941007  RH  049%=      5-min Rain = 0
KDO1 141626Z 03010KT 10/M01 A3041 RMK A01 T00951007  RH  049%=      5-min Rain = 0
KDO1 141627Z 03012KT 10/M01 A3041 RMK A01 T00951007  RH  049%=      5-min Rain = 0
KDO1 141628Z 06012KT 10/M01 A3041 RMK A01 T00951007  RH  049%=      5-min Rain = 0
KDO1 141629Z 05011KT 10/M01 A3041 RMK A01 T00951007  RH  049%=      5-min Rain = 0
KDO1 141630Z 05010KT 10/M01 A3041 RMK A01 T00951007  RH  049%=      5-min Rain = 0
KDO1 141631Z 05012KT 10/M01 A3041 RMK A01 T00961007  RH  049%=      5-min Rain = 0
KDO1 141632Z 06009KT 10/M01 A3041 RMK A01 T00961006  RH  049%=      5-min Rain = 0
KDO1 141633Z 04010KT 10/M01 A3041 RMK A01 T00971006  RH  049%=      5-min Rain = 0
KDO1 141634Z 05012KT 10/M01 A3041 RMK A01 T00981006  RH  048%=      5-min Rain = 0
KDO1 141635Z 04010KT 10/M01 A3041 RMK A01 T01001006  RH  048%=      5-min Rain = 0
KDO1 141636Z 04010KT 10/M01 A3041 RMK A01 T00981006  RH  048%=      5-min Rain = 0
KDO1 141637Z 04009KT 10/M01 A3041 RMK A01 T00981007  RH  048%=      5-min Rain = 0
KDO1 141638Z 05010KT 10/M01 A3041 RMK A01 T00971007  RH  048%=      5-min Rain = 0
KDO1 141639Z 05010KT 10/M01 A3041 RMK A01 T00981006  RH  048%=      5-min Rain = 0
KDO1 141640Z 02011KT 10/M01 A3041 RMK A01 T01011006  RH  048%=      5-min Rain = 0
KDO1 141641Z 05008G13KT 10/M01 A3041 RMK A01 T01011006  RH  047%=      5-min Rain = 0
KDO1 141642Z 05008KT 10/M01 A3041 RMK A01 T01001006  RH  047%=      5-min Rain = 0
KDO1 141643Z 05006KT 10/M01 A3041 RMK A01 T01021006  RH  047%=      5-min Rain = 0
KDO1 141644Z 03010KT 10/M00 A3041 RMK A01 T01041004  RH  047%=      5-min Rain = 0
KDO1 141645Z 03008KT 11/M01 A3041 RMK A01 T01051007  RH  046%=      5-min Rain = 0
KDO1 141646Z 02009KT 10/M01 A3041 RMK A01 T01031006  RH  047%=      5-min Rain = 0
KDO1 141647Z 02009KT 10/M01 A3041 RMK A01 T01031007  RH  046%=      5-min Rain = 0
KDO1 141648Z 02007KT 10/M01 A3041 RMK A01 T01021006  RH  047%=      5-min Rain = 0
KDO1 141649Z 05012KT 10/M01 A3041 RMK A01 T01031006  RH  047%=      5-min Rain = 0
KDO1 141650Z 04009KT 10/M01 A3041 RMK A01 T01041007  RH  046%=      5-min Rain = 0
KDO1 141651Z 04007KT 10/M01 A3041 RMK A01 T01021007  RH  047%=      5-min Rain = 0
KDO1 141652Z 04010KT 10/M01 A3041 RMK A01 T01021006  RH  047%=      5-min Rain = 0
KDO1 141653Z 05007KT 10/M01 A3041 RMK A01 T01031006  RH  046%=      5-min Rain = 0
KDO1 141654Z 04010KT 10/M01 A3041 RMK A01 T01041006  RH  047%=      5-min Rain = 0
KDO1 141655Z 04009KT 10/M01 A3041 RMK A01 T01031008  RH  046%=      5-min Rain = 0
KDO1 141656Z 07012KT 10/M01 A3041 RMK A01 T01011007  RH  047%=      5-min Rain = 0
KDO1 141657Z 06013KT 10/M01 A3041 RMK A01 T01031006  RH  047%=      5-min Rain = 0
KDO1 141658Z 06009KT 10/M01 A3042 RMK A01 T01041006  RH  046%=      5-min Rain = 0
KDO1 141659Z 06008KT 11/M01 A3041 RMK A01 T01051006  RH  046%=      5-min Rain = 0
KDO1 141700Z 06010G15KT 11/M01 A3041 RMK A01 T01061005  RH  046%=      5-min Rain = 0
KDO1 141701Z 05012KT 11/M01 A3042 RMK A01 T01081005  RH  046%=      5-min Rain = 0
KDO1 141702Z 06009KT 11/M01 A3041 RMK A01 T01061007  RH  046%=      5-min Rain = 0
KDO1 141703Z 05009KT 10/M01 A3042 RMK A01 T01041006  RH  046%=      5-min Rain = 0
KDO1 141704Z 04009KT 10/M01 A3042 RMK A01 T01041006  RH  046%=      5-min Rain = 0
KDO1 141705Z 01008G13KT 11/M00 A3042 RMK A01 T01061004  RH  046%=      5-min Rain = 0
KDO1 141706Z 03009G14KT 11/M00 A3042 RMK A01 T01091003  RH  046%=      5-min Rain = 0
KDO1 141707Z 02011KT 11/M00 A3042 RMK A01 T01111004  RH  045%=      5-min Rain = 0
KDO1 141708Z 02011KT 11/M01 A3042 RMK A01 T01081005  RH  045%=      5-min Rain = 0
KDO1 141709Z 03006KT 11/M01 A3042 RMK A01 T01071005  RH  046%=      5-min Rain = 0
KDO1 141710Z 02008KT 11/M00 A3042 RMK A01 T01081004  RH  046%=      5-min Rain = 0
KDO1 141711Z 03010KT 11/M01 A3042 RMK A01 T01081005  RH  046%=      5-min Rain = 0
KDO1 141712Z 03009KT 11/M00 A3042 RMK A01 T01081004  RH  046%=      5-min Rain = 0
KDO1 141713Z 06010KT 11/M00 A3042 RMK A01 T01081004  RH  046%=      5-min Rain = 0
KDO1 141714Z 05009KT 11/M01 A3042 RMK A01 T01091005  RH  045%=      5-min Rain = 0
KDO1 141715Z 04008KT 11/M00 A3042 RMK A01 T01081004  RH  046%=      5-min Rain = 0
KDO1 141716Z 03007KT 11/M01 A3042 RMK A01 T01081005  RH  046%=      5-min Rain = 0
KDO1 141717Z 04009KT 11/M00 A3042 RMK A01 T01081004  RH  046%=      5-min Rain = 0
KDO1 141718Z 04008KT 11/M01 A3041 RMK A01 T01091005  RH  045%=      5-min Rain = 0
KDO1 141719Z 04011KT 11/M01 A3042 RMK A01 T01081005  RH  045%=      5-min Rain = 0
KDO1 141720Z 04009KT 11/M01 A3042 RMK A01 T01061006  RH  046%=      5-min Rain = 0
KDO1 141721Z 04009KT 11/M01 A3042 RMK A01 T01061005  RH  046%=      5-min Rain = 0
KDO1 141722Z 04009KT 11/M01 A3041 RMK A01 T01061005  RH  046%=      5-min Rain = 0
KDO1 141723Z 04012KT 11/M01 A3041 RMK A01 T01061005  RH  046%=      5-min Rain = 0
KDO1 141724Z 05011KT 11/M01 A3041 RMK A01 T01061005  RH  046%=      5-min Rain = 0
KDO1 141725Z 05008KT 11/M01 A3041 RMK A01 T01061005  RH  046%=      5-min Rain = 0
KDO1 141726Z 03009KT 11/M00 A3041 RMK A01 T01081004  RH  046%=      5-min Rain = 0
KDO1 141727Z 05010KT 11/M00 A3041 RMK A01 T01101004  RH  045%=      5-min Rain = 0
KDO1 141728Z 04008KT 11/M00 A3041 RMK A01 T01111004  RH  045%=      5-min Rain = 0
KDO1 141729Z 05006KT 11/M00 A3041 RMK A01 T01121003  RH  045%=      5-min Rain = 0
KDO1 141730Z 04008KT 11/M00 A3041 RMK A01 T01141003  RH  044%=      5-min Rain = 0
KDO1 141731Z 01008KT 11/M00 A3041 RMK A01 T01141004  RH  044%=      5-min Rain = 0
KDO1 141732Z 01008KT 11/M01 A3041 RMK A01 T01121005  RH  044%=      5-min Rain = 0
KDO1 141733Z 02005KT 11/M01 A3041 RMK A01 T01101005  RH  045%=      5-min Rain = 0
KDO1 141734Z 03004KT 11/M00 A3041 RMK A01 T01091004  RH  045%=      5-min Rain = 0
KDO1 141735Z 03004KT 11/M00 A3041 RMK A01 T01101004  RH  045%=      5-min Rain = 0
KDO1 141736Z 05007G12KT 11/M00 A3041 RMK A01 T01121003  RH  045%=      5-min Rain = 0
KDO1 141737Z 06013KT 12/M00 A3041 RMK A01 T01151003  RH  044%=      5-min Rain = 0
KDO1 141738Z 05011KT 12/M00 A3041 RMK A01 T01151004  RH  044%=      5-min Rain = 0
KDO1 141739Z 05008KT 11/M00 A3041 RMK A01 T01121004  RH  045%=      5-min Rain = 0
KDO1 141740Z 05010KT 11/M01 A3041 RMK A01 T01111005  RH  045%=      5-min Rain = 0
KDO1 141741Z 04010KT 11/M01 A3041 RMK A01 T01101005  RH  045%=      5-min Rain = 0
KDO1 141742Z 04008KT 11/M01 A3041 RMK A01 T01091005  RH  045%=      5-min Rain = 0
KDO1 141743Z 04007KT 11/M01 A3041 RMK A01 T01081005  RH  046%=      5-min Rain = 0
KDO1 141744Z 04009G14KT 11/M00 A3041 RMK A01 T01101003  RH  046%=      5-min Rain = 0
KDO1 141745Z 05012KT 12/M00 A3041 RMK A01 T01161001  RH  045%=      5-min Rain = 0
KDO1 141746Z 05011KT 12/M00 A3041 RMK A01 T01171003  RH  044%=      5-min Rain = 0
KDO1 141747Z 06009KT 12/M00 A3041 RMK A01 T01161004  RH  044%=      5-min Rain = 0
KDO1 141748Z 06007KT 12/M00 A3041 RMK A01 T01151003  RH  044%=      5-min Rain = 0
KDO1 141749Z 05007KT 11/M00 A3041 RMK A01 T01141004  RH  044%=      5-min Rain = 0
KDO1 141750Z 07011G16KT 11/M00 A3041 RMK A01 T01131003  RH  045%=      5-min Rain = 0
KDO1 141751Z 06011G16KT 11/M00 A3041 RMK A01 T01141004  RH  044%=      5-min Rain = 0
KDO1 141752Z 05014KT 12/M00 A3041 RMK A01 T01161003  RH  044%=      5-min Rain = 0
KDO1 141753Z 05011KT 12/M00 A3041 RMK A01 T01171003  RH  043%=      5-min Rain = 0
KDO1 141754Z 05008KT 12/M00 A3041 RMK A01 T01151004  RH  044%=      5-min Rain = 0
KDO1 141755Z 04010KT 11/M00 A3041 RMK A01 T01141004  RH  044%=      5-min Rain = 0
KDO1 141756Z 05010KT 11/M00 A3041 RMK A01 T01131004  RH  044%=      5-min Rain = 0
KDO1 141757Z 05009KT 11/M00 A3041 RMK A01 T01131004  RH  044%=      5-min Rain = 0
KDO1 141758Z 05006KT 11/M00 A3041 RMK A01 T01131004  RH  044%=      5-min Rain = 0
KDO1 141759Z 05008KT 11/M00 A304 RMK A01 T01131004  RH  044%=      5-min Rain = 0
KDO1 141800Z 06008KT 11/M00 A304 RMK A01 T01141004  RH  044%=      5-min Rain = 0
KDO1 141801Z 05006KT 12/M00 A304 RMK A01 T01151004  RH  044%=      5-min Rain = 0
KDO1 141802Z 05006KT 12/M00 A304 RMK A01 T01151003  RH  044%=      5-min Rain = 0
KDO1 141803Z 06007KT 12/M00 A304 RMK A01 T01151003  RH  044%=      5-min Rain = 0
KDO1 141804Z 05012KT 12/M00 A304 RMK A01 T01171003  RH  044%=      5-min Rain = 0
KDO1 141805Z 04010KT 12/M00 A304 RMK A01 T01171004  RH  043%=      5-min Rain = 0
KDO1 141806Z 06008KT 12/M00 A304 RMK A01 T01161004  RH  044%=      5-min Rain = 0
KDO1 141807Z 06007KT 12/M00 A304 RMK A01 T01161003  RH  044%=      5-min Rain = 0
KDO1 141808Z 04011KT 12/M00 A304 RMK A01 T01181002  RH  044%=      5-min Rain = 0
KDO1 141809Z 04011KT 12/M00 A304 RMK A01 T01181004  RH  043%=      5-min Rain = 0
KDO1 141810Z 05008KT 12/M00 A304 RMK A01 T01181002  RH  043%=      5-min Rain = 0
KDO1 141811Z 05007KT 12/M00 A304 RMK A01 T01191003  RH  043%=      5-min Rain = 0
KDO1 141812Z 05009KT 12/M00 A304 RMK A01 T01201003  RH  043%=      5-min Rain = 0
KDO1 141813Z 03007KT 12/M00 A304 RMK A01 T01201003  RH  043%=      5-min Rain = 0
KDO1 141814Z 03007KT 12/M00 A304 RMK A01 T01221001  RH  043%=      5-min Rain = 0
KDO1 141815Z 03010KT 12/M00 A304 RMK A01 T01241002  RH  042%=      5-min Rain = 0
KDO1 141816Z 02007KT 12/M00 A304 RMK A01 T01241002  RH  042%=      5-min Rain = 0
KDO1 141817Z 36008KT 12/M00 A304 RMK A01 T01231002  RH  042%=      5-min Rain = 0
KDO1 141818Z 35008KT 12/M00 A3039 RMK A01 T01201004  RH  042%=      5-min Rain = 0
KDO1 141819Z 34008KT 12/M00 A3039 RMK A01 T01171004  RH  043%=      5-min Rain = 0
KDO1 141820Z 02008KT 12/M00 A304 RMK A01 T01171003  RH  044%=      5-min Rain = 0
KDO1 141821Z 05008KT 12/M00 A304 RMK A01 T01191002  RH  043%=      5-min Rain = 0
KDO1 141822Z 04008KT 12/M00 A304 RMK A01 T01211002  RH  043%=      5-min Rain = 0
KDO1 141823Z 03009KT 12/M00 A304 RMK A01 T01241001  RH  042%=      5-min Rain = 0
KDO1 141824Z 04009G14KT 13/M00 A304 RMK A01 T01251002  RH  042%=      5-min Rain = 0
KDO1 141825Z 07011KT 13/M00 A3039 RMK A01 T01261001  RH  041%=      5-min Rain = 0
KDO1 141826Z 06009KT 12/M00 A3039 RMK A01 T01241003  RH  041%=      5-min Rain = 0
KDO1 141827Z 05007KT 12/M00 A3039 RMK A01 T01231002  RH  042%=      5-min Rain = 0
KDO1 141828Z 07007KT 12/M00 A3039 RMK A01 T01241002  RH  042%=      5-min Rain = 0
KDO1 141829Z 06005KT 12/M00 A3039 RMK A01 T01241002  RH  042%=      5-min Rain = 0
KDO1 141830Z 05008KT 12/M00 A3039 RMK A01 T01241002  RH  042%=      5-min Rain = 0
KDO1 141831Z 05009KT 13/M00 A3039 RMK A01 T01251001  RH  042%=      5-min Rain = 0
KDO1 141832Z 05011KT 13/M00 A3039 RMK A01 T01261002  RH  041%=      5-min Rain = 0
KDO1 141833Z 06011KT 12/M00 A3039 RMK A01 T01241003  RH  042%=      5-min Rain = 0
KDO1 141834Z 06010KT 12/M00 A3039 RMK A01 T01231003  RH  042%=      5-min Rain = 0
KDO1 141835Z 04008KT 12/M00 A3039 RMK A01 T01231001  RH  042%=      5-min Rain = 0
KDO1 141836Z 05009KT 13/M00 A3039 RMK A01 T01251003  RH  042%=      5-min Rain = 0
KDO1 141837Z 05006KT 12/M00 A3039 RMK A01 T01231003  RH  042%=      5-min Rain = 0
KDO1 141838Z 02009KT 12/M00 A3039 RMK A01 T01211003  RH  042%=      5-min Rain = 0
KDO1 141839Z 02008KT 12/M00 A3039 RMK A01 T01231001  RH  042%=      5-min Rain = 0
KDO1 141840Z 03009KT 12/M00 A3039 RMK A01 T01231004  RH  042%=      5-min Rain = 0
KDO1 141841Z 01006KT 12/M00 A3039 RMK A01 T01211003  RH  042%=      5-min Rain = 0
KDO1 141842Z 03007KT 12/M00 A3039 RMK A01 T01201003  RH  043%=      5-min Rain = 0
KDO1 141843Z 04007KT 12/M00 A3039 RMK A01 T01231001  RH  042%=      5-min Rain = 0
KDO1 141844Z 03010KT 13/M00 A3039 RMK A01 T01261001  RH  042%=      5-min Rain = 0
KDO1 141845Z 03011KT 13/M00 A3039 RMK A01 T01261003  RH  041%=      5-min Rain = 0
KDO1 141846Z 02006KT 13/M00 A3038 RMK A01 T01251002  RH  042%=      5-min Rain = 0
KDO1 141847Z 00006KT 13/M00 A3038 RMK A01 T01251002  RH  042%=      5-min Rain = 0
KDO1 141848Z 03012KT 13/M00 A3038 RMK A01 T01261002  RH  041%=      5-min Rain = 0
KDO1 141849Z 05010KT 13/M00 A3038 RMK A01 T01261002  RH  041%=      5-min Rain = 0
KDO1 141850Z 04008KT 13/M00 A3038 RMK A01 T01261003  RH  041%=      5-min Rain = 0
KDO1 141851Z 03005KT 13/M00 A3038 RMK A01 T01251003  RH  041%=      5-min Rain = 0
KDO1 141852Z 01005KT 13/M00 A3038 RMK A01 T01251002  RH  041%=      5-min Rain = 0
KDO1 141853Z 01006KT 12/M00 A3038 RMK A01 T01241003  RH  041%=      5-min Rain = 0
KDO1 141854Z 02007KT 12/M00 A3038 RMK A01 T01241003  RH  042%=      5-min Rain = 0
KDO1 141855Z 03009KT 13/M00 A3038 RMK A01 T01261001  RH  042%=      5-min Rain = 0
KDO1 141856Z 04007KT 13/M00 A3038 RMK A01 T01281002  RH  041%=      5-min Rain = 0
KDO1 141857Z 04008KT 13/M00 A3038 RMK A01 T01271002  RH  041%=      5-min Rain = 0
KDO1 141858Z 02006KT 13/M00 A3038 RMK A01 T01271003  RH  041%=      5-min Rain = 0
KDO1 141859Z 02007KT 13/M00 A3038 RMK A01 T01261003  RH  041%=      5-min Rain = 0
KDO1 141900Z 05006KT 13/M00 A3038 RMK A01 T01261002  RH  041%=      5-min Rain = 0
KDO1 141901Z 03009KT 13/M00 A3038 RMK A01 T01291002  RH  041%=      5-min Rain = 0
KDO1 141902Z 03008KT 13/M00 A3038 RMK A01 T01291003  RH  040%=      5-min Rain = 0
KDO1 141903Z 03008KT 13/M00 A3038 RMK A01 T01281002  RH  041%=      5-min Rain = 0
KDO1 141904Z 04010G15KT 13/M00 A3038 RMK A01 T01301002  RH  040%=      5-min Rain = 0
KDO1 141905Z 03012KT 13/M00 A3038 RMK A01 T01311003  RH  040%=      5-min Rain = 0
KDO1 141906Z 03013KT 13/M00 A3038 RMK A01 T01311004  RH  039%=      5-min Rain = 0
KDO1 141907Z 02012KT 13/M01 A3038 RMK A01 T01271005  RH  040%=      5-min Rain = 0
KDO1 141908Z 03012KT 13/M00 A3038 RMK A01 T01281003  RH  040%=      5-min Rain = 0
KDO1 141909Z 02011KT 13/M00 A3038 RMK A01 T01281004  RH  040%=      5-min Rain = 0
KDO1 141910Z 02010KT 13/M00 A3038 RMK A01 T01271004  RH  040%=      5-min Rain = 0
KDO1 141911Z 03007KT 13/M00 A3038 RMK A01 T01271004  RH  041%=      5-min Rain = 0
KDO1 141912Z 01007KT 13/M00 A3038 RMK A01 T01281003  RH  040%=      5-min Rain = 0
KDO1 141913Z 02007KT 13/M00 A3038 RMK A01 T01281004  RH  040%=      5-min Rain = 0
KDO1 141914Z 04007KT 13/M00 A3037 RMK A01 T01291003  RH  040%=      5-min Rain = 0
KDO1 141915Z 04010KT 13/M00 A3038 RMK A01 T01301003  RH  040%=      5-min Rain = 0
KDO1 141916Z 02008KT 13/M00 A3037 RMK A01 T01311003  RH  039%=      5-min Rain = 0
KDO1 141917Z 02009G14KT 13/M00 A3037 RMK A01 T01311004  RH  039%=      5-min Rain = 0
KDO1 141918Z 03010KT 13/M00 A3037 RMK A01 T01301004  RH  040%=      5-min Rain = 0
KDO1 141919Z 02009KT 13/M00 A3037 RMK A01 T01281004  RH  040%=      5-min Rain = 0
KDO1 141920Z 02009G14KT 13/M01 A3037 RMK A01 T01281005  RH  040%=      5-min Rain = 0
KDO1 141921Z 01011KT 13/M01 A3037 RMK A01 T01281005  RH  040%=      5-min Rain = 0
KDO1 141922Z 02010KT 13/M01 A3037 RMK A01 T01281005  RH  040%=      5-min Rain = 0
KDO1 141923Z 02009KT 13/M01 A3037 RMK A01 T01271006  RH  040%=      5-min Rain = 0
KDO1 141924Z 02010KT 13/M01 A3037 RMK A01 T01261006  RH  040%=      5-min Rain = 0
KDO1 141925Z 04010KT 13/M01 A3037 RMK A01 T01261005  RH  040%=      5-min Rain = 0
KDO1 141926Z 03010KT 13/M01 A3037 RMK A01 T01281005  RH  040%=      5-min Rain = 0
KDO1 141927Z 02007KT 13/M01 A3037 RMK A01 T01271006  RH  040%=      5-min Rain = 0
KDO1 141928Z 04008KT 13/M01 A3037 RMK A01 T01261006  RH  040%=      5-min Rain = 0
KDO1 141929Z 04006KT 13/M01 A3037 RMK A01 T01261005  RH  040%=      5-min Rain = 0
KDO1 141930Z 06007KT 13/M01 A3037 RMK A01 T01261005  RH  041%=      5-min Rain = 0
KDO1 141931Z 05007KT 13/M00 A3037 RMK A01 T01261004  RH  041%=      5-min Rain = 0
KDO1 141932Z 07009KT 13/M00 A3037 RMK A01 T01291003  RH  040%=      5-min Rain = 0
KDO1 141933Z 07006KT 13/M00 A3037 RMK A01 T01301004  RH  040%=      5-min Rain = 0
KDO1 141934Z 06011KT 13/M00 A3037 RMK A01 T01301004  RH  040%=      5-min Rain = 0
KDO1 141935Z 05012KT 13/M01 A3037 RMK A01 T01301005  RH  039%=      5-min Rain = 0
KDO1 141936Z 06013KT 13/M01 A3037 RMK A01 T01311005  RH  039%=      5-min Rain = 0
KDO1 141937Z 05011KT 13/M01 A3037 RMK A01 T01311005  RH  039%=      5-min Rain = 0
KDO1 141938Z 04011KT 13/M00 A3037 RMK A01 T01321004  RH  039%=      5-min Rain = 0
KDO1 141939Z 06011KT 13/M01 A3037 RMK A01 T01321005  RH  039%=      5-min Rain = 0
KDO1 141940Z 06008KT 13/M00 A3037 RMK A01 T01311004  RH  039%=      5-min Rain = 0
KDO1 141941Z 06006KT 13/M00 A3037 RMK A01 T01311003  RH  040%=      5-min Rain = 0
KDO1 141942Z 05009KT 13/M00 A3037 RMK A01 T01331003  RH  039%=      5-min Rain = 0
KDO1 141943Z 04010KT 13/M00 A3037 RMK A01 T01331003  RH  039%=      5-min Rain = 0
KDO1 141944Z 03007KT 13/M00 A3037 RMK A01 T01311004  RH  039%=      5-min Rain = 0
KDO1 141945Z 02005KT 13/M00 A3037 RMK A01 T01301004  RH  040%=      5-min Rain = 0
KDO1 141946Z 04005KT 13/M00 A3036 RMK A01 T01301004  RH  040%=      5-min Rain = 0
KDO1 141947Z 05008G13KT 13/M00 A3037 RMK A01 T01311003  RH  040%=      5-min Rain = 0
KDO1 141948Z 04010KT 13/M00 A3036 RMK A01 T01311004  RH  039%=      5-min Rain = 0
KDO1 141949Z 05009KT 13/M00 A3037 RMK A01 T01321004  RH  039%=      5-min Rain = 0
KDO1 141950Z 04007KT 13/M01 A3037 RMK A01 T01311005  RH  039%=      5-min Rain = 0
KDO1 141951Z 07006KT 13/M01 A3036 RMK A01 T01291005  RH  040%=      5-min Rain = 0
KDO1 141952Z 06003KT 13/M00 A3036 RMK A01 T01291004  RH  040%=      5-min Rain = 0
KDO1 141953Z 04005KT 13/M00 A3036 RMK A01 T01311004  RH  040%=      5-min Rain = 0
KDO1 141954Z 05008KT 13/M00 A3036 RMK A01 T01341002  RH  039%=      5-min Rain = 0
KDO1 141955Z 06010KT 14/M00 A3036 RMK A01 T01361004  RH  038%=      5-min Rain = 0
KDO1 141956Z 06009KT 14/M00 A3036 RMK A01 T01361004  RH  038%=      5-min Rain = 0
KDO1 141957Z 05007KT 14/M00 A3036 RMK A01 T01361004  RH  038%=      5-min Rain = 0
KDO1 141958Z 04007KT 14/M00 A3036 RMK A01 T01361004  RH  038%=      5-min Rain = 0
KDO1 141959Z 05006KT 14/M00 A3036 RMK A01 T01361003  RH  038%=      5-min Rain = 0
KDO1 142000Z 06007KT 14/M00 A3036 RMK A01 T01371003  RH  038%=      5-min Rain = 0
KDO1 142001Z 06007KT 14/M00 A3036 RMK A01 T01381003  RH  038%=      5-min Rain = 0
KDO1 142002Z 02005KT 14/M00 A3036 RMK A01 T01381003  RH  038%=      5-min Rain = 0
KDO1 142003Z 04004KT 14/M00 A3036 RMK A01 T01361004  RH  038%=      5-min Rain = 0
KDO1 142004Z 07005KT 14/M00 A3036 RMK A01 T01351003  RH  038%=      5-min Rain = 0
KDO1 142005Z 05009G14KT 14/M00 A3036 RMK A01 T01361002  RH  038%=      5-min Rain = 0
KDO1 142006Z 05011KT 14/M00 A3036 RMK A01 T01391004  RH  038%=      5-min Rain = 0
KDO1 142007Z 05011KT 14/M00 A3036 RMK A01 T01371004  RH  038%=      5-min Rain = 0
KDO1 142008Z 06009KT 14/M01 A3036 RMK A01 T01361005  RH  038%=      5-min Rain = 0
KDO1 142009Z 04008KT 13/M00 A3036 RMK A01 T01341004  RH  038%=      5-min Rain = 0
KDO1 142010Z 02005KT 14/M01 A3036 RMK A01 T01351005  RH  038%=      5-min Rain = 0
KDO1 142011Z 01003KT 14/M00 A3036 RMK A01 T01351004  RH  038%=      5-min Rain = 0
KDO1 142012Z 05003KT 14/M01 A3036 RMK A01 T01351005  RH  038%=      5-min Rain = 0
KDO1 142013Z 05004KT 14/M00 A3036 RMK A01 T01361003  RH  038%=      5-min Rain = 0
KDO1 142014Z 06005KT 14/M00 A3036 RMK A01 T01391003  RH  038%=      5-min Rain = 0
KDO1 142015Z 06006KT 14/M00 A3036 RMK A01 T01401003  RH  037%=      5-min Rain = 0
KDO1 142016Z 05008KT 14/M00 A3036 RMK A01 T01411003  RH  037%=      5-min Rain = 0
KDO1 142017Z 04008KT 14/M00 A3036 RMK A01 T01411004  RH  037%=      5-min Rain = 0
KDO1 142018Z 05007KT 14/M00 A3036 RMK A01 T01401004  RH  037%=      5-min Rain = 0
KDO1 142019Z 05007KT 14/M00 A3036 RMK A01 T01391004  RH  037%=      5-min Rain = 0
KDO1 142020Z 05012KT 14/M00 A3036 RMK A01 T01411004  RH  037%=      5-min Rain = 0
KDO1 142021Z 06009KT 14/M01 A3036 RMK A01 T01401007  RH  037%=      5-min Rain = 0
KDO1 142022Z 06009KT 14/M01 A3036 RMK A01 T01371007  RH  037%=      5-min Rain = 0
KDO1 142023Z 05010KT 14/M01 A3036 RMK A01 T01371007  RH  037%=      5-min Rain = 0
KDO1 142024Z 04005KT 14/M01 A3036 RMK A01 T01371006  RH  037%=      5-min Rain = 0
KDO1 142025Z 06006KT 14/M00 A3036 RMK A01 T01401004  RH  037%=      5-min Rain = 0
KDO1 142026Z 04008KT 14/M01 A3036 RMK A01 T01411006  RH  036%=      5-min Rain = 0
KDO1 142027Z 05007KT 14/M01 A3036 RMK A01 T01401006  RH  037%=      5-min Rain = 0
KDO1 142028Z 05005KT 14/M01 A3035 RMK A01 T01381006  RH  037%=      5-min Rain = 0
KDO1 142029Z 07006KT 14/M01 A3035 RMK A01 T01361006  RH  038%=      5-min Rain = 0
KDO1 142030Z 05007KT 14/M01 A3035 RMK A01 T01361006  RH  038%=      5-min Rain = 0
KDO1 142031Z 04009G14KT 14/M01 A3036 RMK A01 T01361005  RH  038%=      5-min Rain = 0
KDO1 142032Z 03010KT 14/M01 A3036 RMK A01 T01361006  RH  038%=      5-min Rain = 0
KDO1 142033Z 04007KT 14/M01 A3035 RMK A01 T01371005  RH  038%=      5-min Rain = 0
KDO1 142034Z 03007KT 14/M00 A3035 RMK A01 T01371004  RH  038%=      5-min Rain = 0
KDO1 142035Z 04010KT 14/M00 A3036 RMK A01 T01361004  RH  038%=      5-min Rain = 0
KDO1 142036Z 03008KT 14/M00 A3036 RMK A01 T01371004  RH  038%=      5-min Rain = 0
KDO1 142037Z 03005KT 14/M00 A3035 RMK A01 T01381004  RH  038%=      5-min Rain = 0
KDO1 142038Z 05006KT 14/M00 A3035 RMK A01 T01381004  RH  037%=      5-min Rain = 0
KDO1 142039Z 07007KT 14/M00 A3035 RMK A01 T01371004  RH  038%=      5-min Rain = 0
KDO1 142040Z 07006KT 14/M01 A3035 RMK A01 T01351006  RH  038%=      5-min Rain = 0
KDO1 142041Z 06004KT 13/M01 A3035 RMK A01 T01341005  RH  038%=      5-min Rain = 0
KDO1 142042Z 05005KT 13/M01 A3035 RMK A01 T01331005  RH  039%=      5-min Rain = 0
KDO1 142043Z 02009KT 14/M00 A3035 RMK A01 T01361004  RH  038%=      5-min Rain = 0
KDO1 142044Z 00007KT 14/M01 A3035 RMK A01 T01371005  RH  038%=      5-min Rain = 0
KDO1 142045Z 35005KT 14/M00 A3035 RMK A01 T01381004  RH  038%=      5-min Rain = 0
KDO1 142046Z 36005KT 14/M01 A3035 RMK A01 T01381005  RH  037%=      5-min Rain = 0
KDO1 142047Z 35007G14KT 14/M00 A3035 RMK A01 T01391004  RH  037%=      5-min Rain = 0
KDO1 142048Z 02013KT 14/M01 A3035 RMK A01 T01401006  RH  037%=      5-min Rain = 0
KDO1 142049Z 05010KT 14/M01 A3035 RMK A01 T01391005  RH  037%=      5-min Rain = 0
KDO1 142050Z 06007KT 14/M01 A3035 RMK A01 T01391005  RH  037%=      5-min Rain = 0
KDO1 142051Z 05007KT 14/M01 A3035 RMK A01 T01401005  RH  037%=      5-min Rain = 0
KDO1 142052Z 04006KT 14/M01 A3035 RMK A01 T01391005  RH  037%=      5-min Rain = 0
KDO1 142053Z 07006KT 14/M01 A3035 RMK A01 T01381005  RH  037%=      5-min Rain = 0
KDO1 142054Z 07007KT 14/M01 A3035 RMK A01 T01391005  RH  037%=      5-min Rain = 0
KDO1 142055Z 07008KT 14/M01 A3035 RMK A01 T01391005  RH  037%=      5-min Rain = 0
KDO1 142056Z 06007KT 14/M01 A3035 RMK A01 T01391005  RH  037%=      5-min Rain = 0
KDO1 142057Z 06006KT 14/M01 A3035 RMK A01 T01371006  RH  037%=      5-min Rain = 0
KDO1 142058Z 07007KT 14/M01 A3035 RMK A01 T01371005  RH  037%=      5-min Rain = 0
KDO1 142059Z 08007KT 14/M01 A3035 RMK A01 T01381005  RH  037%=      5-min Rain = 0
KDO1 142100Z 07010KT 14/M00 A3035 RMK A01 T01401004  RH  037%=      5-min Rain = 0
KDO1 142101Z 07009KT 14/M01 A3035 RMK A01 T01401005  RH  037%=      5-min Rain = 0
KDO1 142102Z 06006KT 14/M01 A3035 RMK A01 T01401005  RH  037%=      5-min Rain = 0
KDO1 142103Z 05005KT 14/M00 A3035 RMK A01 T01411004  RH  037%=      5-min Rain = 0
KDO1 142104Z 03003KT 14/M00 A3035 RMK A01 T01421004  RH  036%=      5-min Rain = 0
KDO1 142105Z 06007KT 14/M00 A3035 RMK A01 T01421004  RH  037%=      5-min Rain = 0
KDO1 142106Z 03008KT 14/M01 A3036 RMK A01 T01421005  RH  037%=      5-min Rain = 0
KDO1 142107Z 02007KT 14/M01 A3036 RMK A01 T01411006  RH  036%=      5-min Rain = 0
KDO1 142108Z 02007KT 14/M01 A3036 RMK A01 T01381007  RH  037%=      5-min Rain = 0
KDO1 142109Z 02005KT 14/M01 A3036 RMK A01 T01371007  RH  037%=      5-min Rain = 0
KDO1 142110Z 02005KT 14/M01 A3035 RMK A01 T01361007  RH  037%=      5-min Rain = 0
KDO1 142111Z 06009KT 14/M01 A3036 RMK A01 T01361007  RH  037%=      5-min Rain = 0
KDO1 142112Z 08007KT 14/M01 A3036 RMK A01 T01371007  RH  037%=      5-min Rain = 0
KDO1 142113Z 08004KT 14/M01 A3036 RMK A01 T01371008  RH  037%=      5-min Rain = 0
KDO1 142114Z 09004KT 14/M01 A3035 RMK A01 T01371007  RH  037%=      5-min Rain = 0
KDO1 142115Z 05007KT 14/M01 A3036 RMK A01 T01371007  RH  037%=      5-min Rain = 0
KDO1 142116Z 05007KT 14/M01 A3036 RMK A01 T01391007  RH  037%=      5-min Rain = 0
KDO1 142117Z 05009KT 14/M01 A3035 RMK A01 T01371007  RH  037%=      5-min Rain = 0
KDO1 142118Z 05010KT 14/M01 A3036 RMK A01 T01371007  RH  037%=      5-min Rain = 0
KDO1 142119Z 05007KT 14/M01 A3036 RMK A01 T01351008  RH  037%=      5-min Rain = 0
KDO1 142120Z 06006KT 13/M01 A3035 RMK A01 T01341007  RH  038%=      5-min Rain = 0
KDO1 142121Z 06008KT 14/M01 A3036 RMK A01 T01351006  RH  038%=      5-min Rain = 0
KDO1 142122Z 04007KT 14/M01 A3036 RMK A01 T01371006  RH  037%=      5-min Rain = 0
KDO1 142123Z 04005KT 14/M01 A3036 RMK A01 T01371006  RH  037%=      5-min Rain = 0
KDO1 142124Z 02004KT 14/M01 A3036 RMK A01 T01371006  RH  037%=      5-min Rain = 0
KDO1 142125Z 03004KT 14/M01 A3036 RMK A01 T01361006  RH  037%=      5-min Rain = 0
KDO1 142126Z 04005KT 14/M01 A3036 RMK A01 T01361006  RH  038%=      5-min Rain = 0
KDO1 142127Z 01005KT 14/M01 A3036 RMK A01 T01371006  RH  037%=      5-min Rain = 0
KDO1 142128Z 01006KT 14/M01 A3036 RMK A01 T01381008  RH  036%=      5-min Rain = 0
KDO1 142129Z 02006KT 14/M01 A3036 RMK A01 T01381009  RH  036%=      5-min Rain = 0
KDO1 142130Z 03007KT 14/M01 A3036 RMK A01 T01401009  RH  036%=      5-min Rain = 0
KDO1 142131Z 05010KT 14/M01 A3036 RMK A01 T01381010  RH  036%=      5-min Rain = 0
KDO1 142132Z 05008KT 14/M01 A3036 RMK A01 T01371010  RH  036%=      5-min Rain = 0
KDO1 142133Z 05006KT 14/M01 A3036 RMK A01 T01371010  RH  036%=      5-min Rain = 0
KDO1 142134Z 03004KT 14/M01 A3036 RMK A01 T01371010  RH  036%=      5-min Rain = 0
KDO1 142135Z 02006KT 14/M01 A3036 RMK A01 T01371009  RH  037%=      5-min Rain = 0
KDO1 142136Z 02005KT 14/M01 A3036 RMK A01 T01371009  RH  037%=      5-min Rain = 0
KDO1 142137Z 35004KT 14/M01 A3036 RMK A01 T01371009  RH  037%=      5-min Rain = 0
KDO1 142138Z 36004KT 14/M01 A3036 RMK A01 T01361009  RH  037%=      5-min Rain = 0
KDO1 142139Z 35003KT 14/M01 A3036 RMK A01 T01351008  RH  037%=      5-min Rain = 0
KDO1 142140Z 04005KT 14/M01 A3036 RMK A01 T01351009  RH  037%=      5-min Rain = 0
KDO1 142141Z 03009KT 14/M01 A3036 RMK A01 T01361009  RH  037%=      5-min Rain = 0
KDO1 142142Z 02007KT 14/M01 A3036 RMK A01 T01361010  RH  036%=      5-min Rain = 0
KDO1 142143Z 00005KT 14/M01 A3036 RMK A01 T01371010  RH  036%=      5-min Rain = 0
KDO1 142144Z 00005KT 14/M01 A3036 RMK A01 T01371010  RH  036%=      5-min Rain = 0
KDO1 142145Z 02003KT 14/M01 A3036 RMK A01 T01371010  RH  036%=      5-min Rain = 0
KDO1 142146Z 03005KT 14/M01 A3036 RMK A01 T01361010  RH  037%=      5-min Rain = 0
KDO1 142147Z 07007KT 14/M01 A3035 RMK A01 T01351010  RH  037%=      5-min Rain = 0
KDO1 142148Z 07009KT 14/M01 A3035 RMK A01 T01361010  RH  037%=      5-min Rain = 0
KDO1 142149Z 06010KT 14/M01 A3035 RMK A01 T01371009  RH  036%=      5-min Rain = 0
KDO1 142150Z 06009KT 14/M01 A3035 RMK A01 T01381009  RH  036%=      5-min Rain = 0
KDO1 142151Z 05008KT 14/M01 A3035 RMK A01 T01391009  RH  036%=      5-min Rain = 0
KDO1 142152Z 04008KT 14/M01 A3035 RMK A01 T01381009  RH  036%=      5-min Rain = 0
KDO1 142153Z 04007KT 14/M01 A3035 RMK A01 T01381009  RH  036%=      5-min Rain = 0
KDO1 142154Z 06006KT 14/M01 A3035 RMK A01 T01371009  RH  036%=      5-min Rain = 0
KDO1 142155Z 05007KT 14/M01 A3035 RMK A01 T01381009  RH  036%=      5-min Rain = 0
KDO1 142156Z 05006G11KT 14/M01 A3036 RMK A01 T01381009  RH  036%=      5-min Rain = 0
KDO1 142157Z 05009KT 14/M01 A3036 RMK A01 T01381008  RH  036%=      5-min Rain = 0
KDO1 142158Z 06008KT 14/M01 A3036 RMK A01 T01381008  RH  037%=      5-min Rain = 0
KDO1 142159Z 07009KT 14/M01 A3036 RMK A01 T01371008  RH  037%=      5-min Rain = 0
KDO1 142200Z 06007KT 14/M01 A3036 RMK A01 T01371009  RH  037%=      5-min Rain = 0
KDO1 142201Z 05004KT 14/M01 A3036 RMK A01 T01371009  RH  037%=      5-min Rain = 0
KDO1 142202Z 04007KT 14/M01 A3036 RMK A01 T01381009  RH  036%=      5-min Rain = 0
KDO1 142203Z 04004KT 14/M01 A3036 RMK A01 T01381009  RH  036%=      5-min Rain = 0
KDO1 142204Z 04005KT 14/M01 A3035 RMK A01 T01371010  RH  036%=      5-min Rain = 0
KDO1 142205Z 05007KT 14/M01 A3035 RMK A01 T01371010  RH  036%=      5-min Rain = 0
KDO1 142206Z 06007KT 14/M01 A3035 RMK A01 T01371011  RH  036%=      5-min Rain = 0
KDO1 142207Z 06007KT 14/M01 A3035 RMK A01 T01371012  RH  036%=      5-min Rain = 0
KDO1 142208Z 06006KT 14/M01 A3035 RMK A01 T01371012  RH  036%=      5-min Rain = 0
KDO1 142209Z 04008KT 14/M01 A3036 RMK A01 T01371011  RH  036%=      5-min Rain = 0
KDO1 142210Z 04007KT 14/M01 A3036 RMK A01 T01381011  RH  036%=      5-min Rain = 0
KDO1 142211Z 05008KT 14/M01 A3036 RMK A01 T01371012  RH  036%=      5-min Rain = 0
KDO1 142212Z 05006KT 14/M01 A3036 RMK A01 T01371012  RH  036%=      5-min Rain = 0
KDO1 142213Z 05006KT 14/M01 A3036 RMK A01 T01361012  RH  036%=      5-min Rain = 0
KDO1 142214Z 06004KT 14/M01 A3036 RMK A01 T01361011  RH  036%=      5-min Rain = 0
KDO1 142215Z 08005KT 14/M01 A3035 RMK A01 T01371010  RH  036%=      5-min Rain = 0
KDO1 142216Z 08006KT 14/M01 A3035 RMK A01 T01381010  RH  036%=      5-min Rain = 0
KDO1 142217Z 07007KT 14/M01 A3036 RMK A01 T01381010  RH  036%=      5-min Rain = 0
KDO1 142218Z 05006KT 14/M01 A3036 RMK A01 T01371011  RH  036%=      5-min Rain = 0
KDO1 142219Z 05004KT 14/M01 A3036 RMK A01 T01371010  RH  036%=      5-min Rain = 0
KDO1 142220Z 04004KT 14/M01 A3036 RMK A01 T01361010  RH  036%=      5-min Rain = 0
KDO1 142221Z 06006KT 14/M01 A3036 RMK A01 T01361010  RH  036%=      5-min Rain = 0
KDO1 142222Z 05005KT 14/M01 A3036 RMK A01 T01361010  RH  036%=      5-min Rain = 0
KDO1 142223Z 05005KT 14/M01 A3036 RMK A01 T01361010  RH  037%=      5-min Rain = 0
KDO1 142224Z 09005KT 14/M01 A3036 RMK A01 T01351009  RH  037%=      5-min Rain = 0
KDO1 142225Z 07006KT 14/M01 A3036 RMK A01 T01351009  RH  037%=      5-min Rain = 0
KDO1 142226Z 05005KT 14/M01 A3036 RMK A01 T01361009  RH  037%=      5-min Rain = 0
KDO1 142227Z 05005KT 14/M01 A3036 RMK A01 T01351010  RH  037%=      5-min Rain = 0
KDO1 142228Z 05004KT 14/M01 A3036 RMK A01 T01351010  RH  037%=      5-min Rain = 0
KDO1 142229Z 02004KT 14/M01 A3036 RMK A01 T01361009  RH  037%=      5-min Rain = 0
KDO1 142230Z 02006KT 14/M01 A3036 RMK A01 T01371010  RH  037%=      5-min Rain = 0
KDO1 142231Z 04006KT 14/M01 A3036 RMK A01 T01361010  RH  036%=      5-min Rain = 0
KDO1 142232Z 04006KT 14/M01 A3036 RMK A01 T01361010  RH  036%=      5-min Rain = 0
KDO1 142233Z 05005KT 14/M01 A3036 RMK A01 T01351010  RH  037%=      5-min Rain = 0
KDO1 142234Z 05006KT 14/M01 A3036 RMK A01 T01351010  RH  037%=      5-min Rain = 0
KDO1 142235Z 05005KT 13/M01 A3036 RMK A01 T01341010  RH  037%=      5-min Rain = 0
KDO1 142236Z 06005KT 13/M01 A3036 RMK A01 T01341010  RH  037%=      5-min Rain = 0
KDO1 142237Z 06005KT 14/M01 A3036 RMK A01 T01351010  RH  037%=      5-min Rain = 0
KDO1 142238Z 06004KT 13/M01 A3036 RMK A01 T01341011  RH  037%=      5-min Rain = 0
KDO1 142239Z 06003KT 13/M01 A3036 RMK A01 T01341010  RH  037%=      5-min Rain = 0
KDO1 142240Z 07003KT 13/M01 A3036 RMK A01 T01341010  RH  037%=      5-min Rain = 0
KDO1 142241Z 06007KT 13/M01 A3036 RMK A01 T01341010  RH  037%=      5-min Rain = 0
KDO1 142242Z 04008KT 13/M01 A3036 RMK A01 T01341010  RH  037%=      5-min Rain = 0
KDO1 142243Z 04007KT 13/M01 A3036 RMK A01 T01331011  RH  037%=      5-min Rain = 0
KDO1 142244Z 04005KT 13/M01 A3036 RMK A01 T01321011  RH  037%=      5-min Rain = 0
KDO1 142245Z 04006KT 13/M01 A3036 RMK A01 T01321011  RH  037%=      5-min Rain = 0
KDO1 142246Z 04005KT 13/M01 A3036 RMK A01 T01321012  RH  037%=      5-min Rain = 0
KDO1 142247Z 03003KT 13/M01 A3036 RMK A01 T01321012  RH  037%=      5-min Rain = 0
KDO1 142248Z 03005KT 13/M01 A3036 RMK A01 T01311012  RH  037%=      5-min Rain = 0
KDO1 142249Z 04004KT 13/M01 A3036 RMK A01 T01311012  RH  037%=      5-min Rain = 0
KDO1 142250Z 05005KT 13/M01 A3036 RMK A01 T01321012  RH  037%=      5-min Rain = 0
KDO1 142251Z 04006KT 13/M01 A3036 RMK A01 T01311012  RH  037%=      5-min Rain = 0
KDO1 142252Z 05004KT 13/M01 A3036 RMK A01 T01311012  RH  037%=      5-min Rain = 0
KDO1 142253Z 05004KT 13/M01 A3036 RMK A01 T01311012  RH  037%=      5-min Rain = 0
KDO1 142254Z 05007KT 13/M01 A3036 RMK A01 T01311011  RH  037%=      5-min Rain = 0
KDO1 142255Z 05006KT 13/M01 A3036 RMK A01 T01301012  RH  037%=      5-min Rain = 0
KDO1 142256Z 04006KT 13/M01 A3036 RMK A01 T01291011  RH  038%=      5-min Rain = 0
KDO1 142257Z 04006KT 13/M01 A3036 RMK A01 T01291011  RH  038%=      5-min Rain = 0
KDO1 142258Z 04004KT 13/M01 A3036 RMK A01 T01291011  RH  038%=      5-min Rain = 0
KDO1 142259Z 05004KT 13/M01 A3036 RMK A01 T01291011  RH  038%=      5-min Rain = 0
KDO1 142300Z 04004KT 13/M01 A3036 RMK A01 T01291011  RH  038%=      5-min Rain = 0
KDO1 142301Z 04005KT 13/M01 A3036 RMK A01 T01281011  RH  038%=      5-min Rain = 0
KDO1 142302Z 03005KT 13/M01 A3036 RMK A01 T01281011  RH  038%=      5-min Rain = 0
KDO1 142303Z 04005KT 13/M01 A3036 RMK A01 T01281011  RH  038%=      5-min Rain = 0
KDO1 142304Z 04005KT 13/M01 A3036 RMK A01 T01271011  RH  038%=      5-min Rain = 0
KDO1 142305Z 04005KT 13/M01 A3036 RMK A01 T01271011  RH  039%=      5-min Rain = 0
KDO1 142306Z 05005KT 13/M01 A3036 RMK A01 T01261011  RH  039%=      5-min Rain = 0
KDO1 142307Z 05004KT 13/M01 A3036 RMK A01 T01261011  RH  039%=      5-min Rain = 0
KDO1 142308Z 05004KT 13/M01 A3036 RMK A01 T01261011  RH  039%=      5-min Rain = 0
KDO1 142309Z 05004KT 13/M01 A3036 RMK A01 T01261011  RH  039%=      5-min Rain = 0
KDO1 142310Z 06004KT 13/M01 A3036 RMK A01 T01261011  RH  039%=      5-min Rain = 0
KDO1 142311Z 06004KT 13/M01 A3036 RMK A01 T01251011  RH  039%=      5-min Rain = 0
KDO1 142312Z 06003KT 13/M01 A3036 RMK A01 T01251011  RH  039%=      5-min Rain = 0
KDO1 142313Z 07003KT 12/M01 A3036 RMK A01 T01241012  RH  039%=      5-min Rain = 0
KDO1 142314Z 07004KT 12/M01 A3036 RMK A01 T01241012  RH  039%=      5-min Rain = 0
KDO1 142315Z 07004KT 12/M01 A3036 RMK A01 T01231012  RH  039%=      5-min Rain = 0
KDO1 142316Z 07003KT 12/M01 A3036 RMK A01 T01231012  RH  039%=      5-min Rain = 0
KDO1 142317Z 07004KT 12/M01 A3036 RMK A01 T01221012  RH  040%=      5-min Rain = 0
KDO1 142318Z 06003KT 12/M01 A3036 RMK A01 T01211012  RH  040%=      5-min Rain = 0
KDO1 142319Z 06003KT 12/M01 A3036 RMK A01 T01201012  RH  040%=      5-min Rain = 0
KDO1 142320Z 07003KT 12/M01 A3036 RMK A01 T01191012  RH  040%=      5-min Rain = 0
KDO1 142321Z 06005KT 12/M01 A3036 RMK A01 T01191012  RH  040%=      5-min Rain = 0
KDO1 142322Z 06004KT 12/M01 A3037 RMK A01 T01181012  RH  040%=      5-min Rain = 0
KDO1 142323Z 07004KT 12/M01 A3037 RMK A01 T01181012  RH  040%=      5-min Rain = 0
KDO1 142324Z 07004KT 12/M01 A3037 RMK A01 T01171013  RH  041%=      5-min Rain = 0
KDO1 142325Z 07004KT 12/M01 A3037 RMK A01 T01161013  RH  041%=      5-min Rain = 0
KDO1 142326Z 07004KT 12/M01 A3037 RMK A01 T01151013  RH  041%=      5-min Rain = 0
KDO1 142327Z 07003KT 12/M01 A3037 RMK A01 T01151013  RH  041%=      5-min Rain = 0
KDO1 142328Z 07004KT 11/M01 A3037 RMK A01 T01141013  RH  041%=      5-min Rain = 0
KDO1 142329Z 07004KT 11/M01 A3037 RMK A01 T01141013  RH  041%=      5-min Rain = 0
KDO1 142330Z 07004KT 11/M01 A3037 RMK A01 T01131013  RH  042%=      5-min Rain = 0
KDO1 142331Z 07004KT 11/M01 A3037 RMK A01 T01121013  RH  042%=      5-min Rain = 0
KDO1 142332Z 07004KT 11/M01 A3037 RMK A01 T01121013  RH  042%=      5-min Rain = 0
KDO1 142333Z 07004KT 11/M01 A3037 RMK A01 T01111013  RH  042%=      5-min Rain = 0
KDO1 142334Z 07004KT 11/M01 A3037 RMK A01 T01111013  RH  042%=      5-min Rain = 0
KDO1 142335Z 07004KT 11/M01 A3037 RMK A01 T01101013  RH  042%=      5-min Rain = 0
KDO1 142336Z 07004KT 11/M01 A3037 RMK A01 T01091013  RH  043%=      5-min Rain = 0
KDO1 142337Z 07004KT 11/M01 A3037 RMK A01 T01091013  RH  043%=      5-min Rain = 0
KDO1 142338Z 07004KT 11/M01 A3037 RMK A01 T01081013  RH  043%=      5-min Rain = 0
KDO1 142339Z 07004KT 11/M01 A3037 RMK A01 T01081013  RH  043%=      5-min Rain = 0
KDO1 142340Z 07004KT 11/M01 A3037 RMK A01 T01071013  RH  043%=      5-min Rain = 0
KDO1 142341Z 07004KT 11/M01 A3037 RMK A01 T01061014  RH  043%=      5-min Rain = 0
KDO1 142342Z 07004KT 11/M01 A3037 RMK A01 T01061013  RH  043%=      5-min Rain = 0
KDO1 142343Z 07004KT 11/M01 A3037 RMK A01 T01051013  RH  044%=      5-min Rain = 0
KDO1 142344Z 07004KT 11/M01 A3037 RMK A01 T01051013  RH  044%=      5-min Rain = 0
KDO1 142345Z 07005KT 10/M01 A3037 RMK A01 T01041013  RH  044%=      5-min Rain = 0
KDO1 142346Z 07005KT 10/M01 A3037 RMK A01 T01041013  RH  044%=      5-min Rain = 0
KDO1 142347Z 07004KT 10/M01 A3037 RMK A01 T01041014  RH  044%=      5-min Rain = 0
KDO1 142348Z 07004KT 10/M01 A3037 RMK A01 T01031013  RH  044%=      5-min Rain = 0
KDO1 142349Z 07004KT 10/M01 A3037 RMK A01 T01031014  RH  044%=      5-min Rain = 0
KDO1 142350Z 07004KT 10/M01 A3037 RMK A01 T01021013  RH  044%=      5-min Rain = 0
KDO1 142351Z 07004KT 10/M01 A3037 RMK A01 T01021014  RH  045%=      5-min Rain = 0
KDO1 142352Z 07004KT 10/M01 A3037 RMK A01 T01011014  RH  045%=      5-min Rain = 0
KDO1 142353Z 07004KT 10/M01 A3037 RMK A01 T01011014  RH  045%=      5-min Rain = 0
KDO1 142354Z 08004KT 10/M01 A3037 RMK A01 T01001014  RH  045%=      5-min Rain = 0
KDO1 142355Z 08004KT 10/M01 A3037 RMK A01 T01001014  RH  045%=      5-min Rain = 0
KDO1 142356Z 07004KT 10/M01 A3037 RMK A01 T01001014  RH  045%=      5-min Rain = 0
KDO1 142357Z 07004KT 10/M01 A3037 RMK A01 T00991014  RH  045%=      5-min Rain = 0
KDO1 142358Z 07004KT 10/M01 A3037 RMK A01 T00991014  RH  045%=      5-min Rain = 0
KDO1 142359Z 07004KT 10/M01 A3037 RMK A01 T00981014  RH  045%=      5-min Rain = 0
KDO1 150000Z 07004KT 10/M02 A3037 RMK A01 T00971015  RH  046%=      5-min Rain = 0
KDO1 150001Z 07003KT 10/M02 A3037 RMK A01 T00961015  RH  046%=      5-min Rain = 0
KDO1 150002Z 07004KT 10/M02 A3037 RMK A01 T00961015  RH  046%=      5-min Rain = 0
KDO1 150003Z 07004KT 10/M02 A3037 RMK A01 T00951015  RH  046%=      5-min Rain = 0
KDO1 150004Z 07004KT 10/M02 A3037 RMK A01 T00951015  RH  046%=      5-min Rain = 0
KDO1 150005Z 07004KT 09/M02 A3038 RMK A01 T00941015  RH  046%=      5-min Rain = 0
KDO1 150006Z 07004KT 09/M02 A3038 RMK A01 T00941015  RH  047%=      5-min Rain = 0
KDO1 150007Z 07004KT 09/M02 A3038 RMK A01 T00931015  RH  047%=      5-min Rain = 0
KDO1 150008Z 07004KT 09/M02 A3038 RMK A01 T00931015  RH  047%=      5-min Rain = 0
KDO1 150009Z 07004KT 09/M02 A3038 RMK A01 T00931015  RH  047%=      5-min Rain = 0
KDO1 150010Z 07004KT 09/M02 A3038 RMK A01 T00921015  RH  047%=      5-min Rain = 0
KDO1 150011Z 07003KT 09/M02 A3038 RMK A01 T00921016  RH  047%=      5-min Rain = 0
KDO1 150012Z 07003KT 09/M02 A3038 RMK A01 T00911016  RH  047%=      5-min Rain = 0
KDO1 150013Z 07003KT 09/M02 A3038 RMK A01 T00901016  RH  047%=      5-min Rain = 0
KDO1 150014Z 07003KT 09/M02 A3038 RMK A01 T00891017  RH  047%=      5-min Rain = 0
KDO1 150015Z 07002KT 09/M02 A3038 RMK A01 T00881018  RH  047%=      5-min Rain = 0
KDO1 150016Z 07002KT 09/M02 A3038 RMK A01 T00861019  RH  048%=      5-min Rain = 0
KDO1 150017Z 07002KT 09/M02 A3038 RMK A01 T00851019  RH  048%=      5-min Rain = 0
KDO1 150018Z 07002KT 08/M02 A3038 RMK A01 T00841019  RH  048%=      5-min Rain = 0
KDO1 150019Z 07002KT 08/M02 A3038 RMK A01 T00821019  RH  049%=      5-min Rain = 0
KDO1 150020Z 07002KT 08/M02 A3038 RMK A01 T00811017  RH  050%=      5-min Rain = 0
KDO1 150021Z 07002KT 08/M02 A3038 RMK A01 T00811017  RH  050%=      5-min Rain = 0
KDO1 150022Z 08002KT 08/M02 A3038 RMK A01 T00811016  RH  050%=      5-min Rain = 0
KDO1 150023Z 07002KT 08/M02 A3038 RMK A01 T00801016  RH  050%=      5-min Rain = 0
KDO1 150024Z 07002KT 08/M02 A3038 RMK A01 T00811016  RH  050%=      5-min Rain = 0
KDO1 150025Z 07002KT 08/M02 A3038 RMK A01 T00811016  RH  050%=      5-min Rain = 0
KDO1 150026Z 07002KT 08/M02 A3038 RMK A01 T00821016  RH  050%=      5-min Rain = 0
KDO1 150027Z 07002KT 08/M02 A3038 RMK A01 T00821016  RH  050%=      5-min Rain = 0
KDO1 150028Z 07002KT 08/M02 A3038 RMK A01 T00821016  RH  050%=      5-min Rain = 0
KDO1 150029Z 07003KT 08/M02 A3038 RMK A01 T00831016  RH  050%=      5-min Rain = 0
KDO1 150030Z 07003KT 08/M02 A3038 RMK A01 T00831015  RH  050%=      5-min Rain = 0
KDO1 150031Z 06003KT 08/M02 A3038 RMK A01 T00841015  RH  050%=      5-min Rain = 0
KDO1 150032Z 06003KT 08/M02 A3038 RMK A01 T00841016  RH  050%=      5-min Rain = 0
KDO1 150033Z 06003KT 08/M02 A3038 RMK A01 T00841016  RH  050%=      5-min Rain = 0
KDO1 150034Z 06003KT 08/M02 A3038 RMK A01 T00841015  RH  050%=      5-min Rain = 0
KDO1 150035Z 06003KT 08/M02 A3038 RMK A01 T00841015  RH  050%=      5-min Rain = 0
KDO1 150036Z 05003KT 08/M02 A3038 RMK A01 T00841015  RH  050%=      5-min Rain = 0
KDO1 150037Z 05003KT 08/M02 A3038 RMK A01 T00831015  RH  050%=      5-min Rain = 0
KDO1 150038Z 06003KT 08/M02 A3038 RMK A01 T00831015  RH  050%=      5-min Rain = 0
KDO1 150039Z 05003KT 08/M02 A3038 RMK A01 T00831015  RH  050%=      5-min Rain = 0
KDO1 150040Z 05003KT 08/M02 A3038 RMK A01 T00831015  RH  050%=      5-min Rain = 0
KDO1 150041Z 05004KT 08/M02 A3038 RMK A01 T00831015  RH  050%=      5-min Rain = 0
KDO1 150042Z 06004KT 08/M02 A3038 RMK A01 T00831015  RH  050%=      5-min Rain = 0
KDO1 150043Z 06003KT 08/M02 A3038 RMK A01 T00841015  RH  050%=      5-min Rain = 0
KDO1 150044Z 06003KT 08/M02 A3038 RMK A01 T00841016  RH  050%=      5-min Rain = 0
KDO1 150045Z 05002KT 08/M02 A3038 RMK A01 T00831016  RH  050%=      5-min Rain = 0
KDO1 150046Z 05002KT 08/M02 A3039 RMK A01 T00831016  RH  050%=      5-min Rain = 0
KDO1 150047Z 05002KT 08/M02 A3039 RMK A01 T00821016  RH  050%=      5-min Rain = 0
KDO1 150048Z 05002KT 08/M02 A3039 RMK A01 T00811017  RH  050%=      5-min Rain = 0
KDO1 150049Z 05002KT 08/M02 A3039 RMK A01 T00801017  RH  050%=      5-min Rain = 0
KDO1 150050Z 05002KT 08/M02 A3039 RMK A01 T00791017  RH  051%=      5-min Rain = 0
KDO1 150051Z 05001KT 08/M02 A3039 RMK A01 T00791017  RH  051%=      5-min Rain = 0
KDO1 150052Z 05002KT 08/M02 A3039 RMK A01 T00781017  RH  051%=      5-min Rain = 0
KDO1 150053Z 05002KT 08/M02 A3039 RMK A01 T00771017  RH  051%=      5-min Rain = 0
KDO1 150054Z 05002KT 08/M02 A3039 RMK A01 T00771016  RH  052%=      5-min Rain = 0
KDO1 150055Z 05002KT 08/M02 A3039 RMK A01 T00771016  RH  052%=      5-min Rain = 0
KDO1 150056Z 05002KT 08/M02 A3039 RMK A01 T00771016  RH  052%=      5-min Rain = 0
KDO1 150057Z 05002KT 08/M02 A3039 RMK A01 T00761016  RH  052%=      5-min Rain = 0
KDO1 150058Z 06003KT 08/M02 A3039 RMK A01 T00761016  RH  052%=      5-min Rain = 0
KDO1 150059Z 06003KT 08/M02 A3039 RMK A01 T00761016  RH  052%=      5-min Rain = 0
KDO1 150100Z 06003KT 08/M02 A3039 RMK A01 T00761016  RH  052%=      5-min Rain = 0
KDO1 150101Z 06003KT 08/M02 A3039 RMK A01 T00761016  RH  052%=      5-min Rain = 0
KDO1 150102Z 06002KT 08/M02 A3039 RMK A01 T00751016  RH  052%=      5-min Rain = 0
KDO1 150103Z 06002KT 08/M02 A3039 RMK A01 T00751017  RH  052%=      5-min Rain = 0
KDO1 150104Z 05002KT 08/M02 A3039 RMK A01 T00751016  RH  052%=      5-min Rain = 0
KDO1 150105Z 05002KT 08/M02 A3039 RMK A01 T00761016  RH  052%=      5-min Rain = 0
KDO1 150106Z 05002KT 08/M02 A3039 RMK A01 T00761016  RH  052%=      5-min Rain = 0
KDO1 150107Z 05002KT 08/M02 A3039 RMK A01 T00761016  RH  052%=      5-min Rain = 0
KDO1 150108Z 05002KT 08/M02 A3039 RMK A01 T00751017  RH  052%=      5-min Rain = 0
KDO1 150109Z 05002KT 08/M02 A3039 RMK A01 T00751016  RH  052%=      5-min Rain = 0
KDO1 150110Z 05002KT 08/M02 A3039 RMK A01 T00751016  RH  053%=      5-min Rain = 0
KDO1 150111Z 05002KT 07/M02 A3039 RMK A01 T00741016  RH  053%=      5-min Rain = 0
KDO1 150112Z 04002KT 08/M02 A3039 RMK A01 T00751016  RH  052%=      5-min Rain = 0
KDO1 150113Z 04002KT 08/M02 A3039 RMK A01 T00751016  RH  052%=      5-min Rain = 0
KDO1 150114Z 04003KT 08/M02 A3039 RMK A01 T00751016  RH  052%=      5-min Rain = 0
KDO1 150115Z 05003KT 08/M02 A3039 RMK A01 T00751016  RH  052%=      5-min Rain = 0
KDO1 150116Z 04003KT 08/M02 A304 RMK A01 T00751016  RH  053%=      5-min Rain = 0
KDO1 150117Z 04003KT 08/M02 A304 RMK A01 T00751016  RH  053%=      5-min Rain = 0
KDO1 150118Z 04003KT 08/M02 A304 RMK A01 T00751016  RH  053%=      5-min Rain = 0
KDO1 150119Z 03003KT 08/M02 A304 RMK A01 T00751016  RH  052%=      5-min Rain = 0
KDO1 150120Z 04003KT 08/M02 A304 RMK A01 T00761016  RH  052%=      5-min Rain = 0
KDO1 150121Z 05003KT 08/M02 A304 RMK A01 T00761016  RH  052%=      5-min Rain = 0
KDO1 150122Z 05003KT 08/M02 A304 RMK A01 T00771016  RH  052%=      5-min Rain = 0
KDO1 150123Z 05003KT 08/M02 A304 RMK A01 T00771015  RH  052%=      5-min Rain = 0
KDO1 150124Z 07003KT 08/M02 A304 RMK A01 T00781015  RH  052%=      5-min Rain = 0
KDO1 150125Z 06003KT 08/M01 A304 RMK A01 T00791014  RH  052%=      5-min Rain = 0
KDO1 150126Z 07003KT 08/M01 A304 RMK A01 T00801014  RH  051%=      5-min Rain = 0
KDO1 150127Z 07003KT 08/M02 A304 RMK A01 T00801015  RH  051%=      5-min Rain = 0
KDO1 150128Z 07003KT 08/M02 A304 RMK A01 T00791015  RH  051%=      5-min Rain = 0
KDO1 150129Z 06003KT 08/M02 A304 RMK A01 T00761019  RH  051%=      5-min Rain = 0
KDO1 150130Z 04003KT 07/M02 A304 RMK A01 T00691024  RH  051%=      5-min Rain = 0
KDO1 150131Z 03003KT 06/M03 A304 RMK A01 T00641025  RH  053%=      5-min Rain = 0
KDO1 150132Z 04003KT 06/M03 A304 RMK A01 T00611025  RH  054%=      5-min Rain = 0
KDO1 150133Z 04003KT 06/M02 A304 RMK A01 T00601021  RH  056%=      5-min Rain = 0
KDO1 150134Z 04002KT 06/M02 A304 RMK A01 T00621019  RH  056%=      5-min Rain = 0
KDO1 150135Z 05002KT 07/M02 A304 RMK A01 T00651017  RH  056%=      5-min Rain = 0
KDO1 150136Z 05002KT 07/M02 A304 RMK A01 T00671017  RH  055%=      5-min Rain = 0
KDO1 150137Z 05002KT 07/M02 A304 RMK A01 T00681016  RH  055%=      5-min Rain = 0
KDO1 150138Z 05002KT 07/M02 A304 RMK A01 T00691016  RH  055%=      5-min Rain = 0
KDO1 150139Z 05002KT 07/M02 A304 RMK A01 T00701016  RH  054%=      5-min Rain = 0
KDO1 150140Z 05003KT 07/M02 A304 RMK A01 T00711016  RH  054%=      5-min Rain = 0
KDO1 150141Z 04002KT 07/M02 A304 RMK A01 T00711016  RH  054%=      5-min Rain = 0
KDO1 150142Z 05002KT 07/M02 A304 RMK A01 T00701019  RH  053%=      5-min Rain = 0
KDO1 150143Z 06001KT 07/M02 A304 RMK A01 T00681021  RH  053%=      5-min Rain = 0
KDO1 150144Z 04001KT 07/M02 A304 RMK A01 T00651021  RH  054%=      5-min Rain = 0
KDO1 150145Z 05002KT 06/M02 A304 RMK A01 T00631019  RH  056%=      5-min Rain = 0
KDO1 150146Z 05002KT 06/M02 A3041 RMK A01 T00631018  RH  056%=      5-min Rain = 0
KDO1 150147Z 06002KT 07/M02 A3041 RMK A01 T00651016  RH  056%=      5-min Rain = 0
KDO1 150148Z 04002KT 07/M02 A3041 RMK A01 T00671016  RH  056%=      5-min Rain = 0
KDO1 150149Z 04002KT 07/M02 A3041 RMK A01 T00681015  RH  055%=      5-min Rain = 0
KDO1 150150Z 04002KT 07/M02 A3041 RMK A01 T00701015  RH  055%=      5-min Rain = 0
KDO1 150151Z 05002KT 07/M02 A3041 RMK A01 T00701016  RH  054%=      5-min Rain = 0
KDO1 150152Z 05001KT 07/M02 A3041 RMK A01 T00711016  RH  054%=      5-min Rain = 0
KDO1 150153Z 05002KT 07/M02 A3041 RMK A01 T00711016  RH  054%=      5-min Rain = 0
KDO1 150154Z 07002KT 07/M02 A3041 RMK A01 T00711016  RH  054%=      5-min Rain = 0
KDO1 150155Z 05001KT 07/M02 A3041 RMK A01 T00711016  RH  054%=      5-min Rain = 0
KDO1 150156Z 05002KT 07/M02 A3041 RMK A01 T00711015  RH  054%=      5-min Rain = 0
KDO1 150157Z 09001KT 07/M02 A3041 RMK A01 T00711016  RH  054%=      5-min Rain = 0
KDO1 150158Z 11002KT 07/M01 A3041 RMK A01 T00711014  RH  055%=      5-min Rain = 0
KDO1 150159Z 07002KT 07/M01 A3041 RMK A01 T00721014  RH  054%=      5-min Rain = 0
KDO1 150200Z 09001KT 07/M02 A3041 RMK A01 T00731015  RH  054%=      5-min Rain = 0
KDO1 150201Z 08002KT 07/M02 A3041 RMK A01 T00721016  RH  054%=      5-min Rain = 0
KDO1 150202Z 10001KT 07/M02 A3041 RMK A01 T00721015  RH  054%=      5-min Rain = 0
KDO1 150203Z 11001KT 07/M01 A3041 RMK A01 T00711014  RH  054%=      5-min Rain = 0
KDO1 150204Z 13001KT 07/M02 A3041 RMK A01 T00711015  RH  054%=      5-min Rain = 0
KDO1 150205Z 13001KT 07/M02 A3041 RMK A01 T00711015  RH  054%=      5-min Rain = 0
KDO1 150206Z 12001KT 07/M02 A3041 RMK A01 T00691016  RH  054%=      5-min Rain = 0
KDO1 150207Z 13001KT 07/M02 A3041 RMK A01 T00681016  RH  055%=      5-min Rain = 0
KDO1 150208Z 14001KT 07/M02 A3041 RMK A01 T00671016  RH  055%=      5-min Rain = 0
KDO1 150209Z 14001KT 07/M02 A3041 RMK A01 T00671016  RH  056%=      5-min Rain = 0
KDO1 150210Z 14000KT 07/M02 A3041 RMK A01 T00671015  RH  056%=      5-min Rain = 0
KDO1 150211Z 14000KT 07/M02 A3041 RMK A01 T00661016  RH  056%=      5-min Rain = 0
KDO1 150212Z 13000KT 07/M02 A3041 RMK A01 T00661016  RH  056%=      5-min Rain = 0
KDO1 150213Z 00000KT 07/M02 A3041 RMK A01 T00651016  RH  056%=      5-min Rain = 0
KDO1 150214Z 12000KT 07/M02 A3041 RMK A01 T00651016  RH  056%=      5-min Rain = 0
KDO1 150215Z 10001KT 06/M02 A3041 RMK A01 T00631019  RH  056%=      5-min Rain = 0
KDO1 150216Z 10000KT 06/M02 A3041 RMK A01 T00601020  RH  056%=      5-min Rain = 0
KDO1 150217Z 00000KT 06/M02 A3041 RMK A01 T00591020  RH  057%=      5-min Rain = 0
KDO1 150218Z 00000KT 06/M02 A3041 RMK A01 T00581019  RH  058%=      5-min Rain = 0
KDO1 150219Z 00000KT 06/M02 A3041 RMK A01 T00571019  RH  058%=      5-min Rain = 0
KDO1 150220Z 00000KT 06/M02 A3041 RMK A01 T00571018  RH  059%=      5-min Rain = 0
KDO1 150221Z 00000KT 06/M02 A3041 RMK A01 T00581017  RH  059%=      5-min Rain = 0
KDO1 150222Z 00000KT 06/M02 A3041 RMK A01 T00591017  RH  058%=      5-min Rain = 0
KDO1 150223Z 00000KT 06/M02 A3041 RMK A01 T00591016  RH  058%=      5-min Rain = 0
KDO1 150224Z 00000KT 06/M02 A3041 RMK A01 T00591016  RH  058%=      5-min Rain = 0
KDO1 150225Z 00000KT 06/M02 A3041 RMK A01 T00591016  RH  058%=      5-min Rain = 0
KDO1 150226Z 00000KT 06/M02 A3041 RMK A01 T00591016  RH  058%=      5-min Rain = 0
KDO1 150227Z 00000KT 06/M02 A3041 RMK A01 T00591017  RH  058%=      5-min Rain = 0
KDO1 150228Z 00000KT 06/M02 A3041 RMK A01 T00571020  RH  058%=      5-min Rain = 0
KDO1 150229Z 00000KT 05/M02 A3041 RMK A01 T00541022  RH  058%=      5-min Rain = 0
KDO1 150230Z 00000KT 05/M02 A3042 RMK A01 T00511023  RH  059%=      5-min Rain = 0
KDO1 150231Z 00000KT 05/M02 A3042 RMK A01 T00491021  RH  060%=      5-min Rain = 0
KDO1 150232Z 00000KT 05/M02 A3042 RMK A01 T00481023  RH  060%=      5-min Rain = 0
KDO1 150233Z 00000KT 05/M03 A3042 RMK A01 T00451028  RH  059%=      5-min Rain = 0
KDO1 150234Z 00000KT 04/M03 A3042 RMK A01 T00411028  RH  061%=      5-min Rain = 0
KDO1 150235Z 00000KT 04/M03 A3042 RMK A01 T00391026  RH  062%=      5-min Rain = 0
KDO1 150236Z 00000KT 04/M02 A3042 RMK A01 T00381024  RH  064%=      5-min Rain = 0
KDO1 150237Z 00000KT 04/M02 A3042 RMK A01 T00381024  RH  064%=      5-min Rain = 0
KDO1 150238Z 00000KT 04/M03 A3042 RMK A01 T00381025  RH  063%=      5-min Rain = 0
KDO1 150239Z 00000KT 04/M03 A3042 RMK A01 T00351027  RH  064%=      5-min Rain = 0
KDO1 150240Z 00000KT 04/M02 A3042 RMK A01 T00351024  RH  065%=      5-min Rain = 0
KDO1 150241Z 00000KT 04/M02 A3042 RMK A01 T00371022  RH  066%=      5-min Rain = 0
KDO1 150242Z 00000KT 04/M02 A3042 RMK A01 T00381022  RH  065%=      5-min Rain = 0
KDO1 150243Z 00000KT 04/M02 A3042 RMK A01 T00391022  RH  064%=      5-min Rain = 0
KDO1 150244Z 00000KT 04/M02 A3042 RMK A01 T00391022  RH  064%=      5-min Rain = 0
KDO1 150245Z 00000KT 04/M02 A3042 RMK A01 T00381024  RH  064%=      5-min Rain = 0
KDO1 150246Z 00000KT 04/M02 A3042 RMK A01 T00371023  RH  065%=      5-min Rain = 0
KDO1 150247Z 00000KT 04/M02 A3042 RMK A01 T00371023  RH  065%=      5-min Rain = 0
KDO1 150248Z 00000KT 04/M02 A3042 RMK A01 T00371022  RH  065%=      5-min Rain = 0
KDO1 150249Z 00000KT 04/M02 A3042 RMK A01 T00371022  RH  065%=      5-min Rain = 0
KDO1 150250Z 00000KT 04/M02 A3042 RMK A01 T00371022  RH  065%=      5-min Rain = 0
KDO1 150251Z 00000KT 04/M03 A3042 RMK A01 T00361025  RH  064%=      5-min Rain = 0
KDO1 150252Z 00000KT 03/M03 A3042 RMK A01 T00341026  RH  065%=      5-min Rain = 0
KDO1 150253Z 00000KT 03/M02 A3042 RMK A01 T00331024  RH  066%=      5-min Rain = 0
KDO1 150254Z 00000KT 03/M02 A3042 RMK A01 T00331024  RH  066%=      5-min Rain = 0
KDO1 150255Z 00000KT 03/M02 A3042 RMK A01 T00331024  RH  066%=      5-min Rain = 0
KDO1 150256Z 00000KT 03/M02 A3042 RMK A01 T00331024  RH  066%=      5-min Rain = 0
KDO1 150257Z 00000KT 03/M02 A3042 RMK A01 T00331024  RH  066%=      5-min Rain = 0
KDO1 150258Z 00000KT 03/M02 A3042 RMK A01 T00331024  RH  066%=      5-min Rain = 0
KDO1 150259Z 00000KT 03/M02 A3042 RMK A01 T00331024  RH  066%=      5-min Rain = 0
KDO1 150300Z 00000KT 03/M02 A3042 RMK A01 T00341022  RH  067%=      5-min Rain = 0
KDO1 150301Z 00000KT 04/M02 A3042 RMK A01 T00351022  RH  066%=      5-min Rain = 0
KDO1 150302Z 00000KT 04/M02 A3042 RMK A01 T00361022  RH  066%=      5-min Rain = 0
KDO1 150303Z 00000KT 04/M02 A3042 RMK A01 T00371022  RH  065%=      5-min Rain = 0
KDO1 150304Z 00000KT 04/M02 A3042 RMK A01 T00371022  RH  065%=      5-min Rain = 0
KDO1 150305Z 00000KT 04/M02 A3042 RMK A01 T00371023  RH  065%=      5-min Rain = 0
KDO1 150306Z 00000KT 04/M03 A3042 RMK A01 T00351026  RH  065%=      5-min Rain = 0
KDO1 150307Z 00000KT 03/M03 A3042 RMK A01 T00331029  RH  064%=      5-min Rain = 0
KDO1 150308Z 00000KT 03/M03 A3042 RMK A01 T00301029  RH  066%=      5-min Rain = 0
KDO1 150309Z 00000KT 03/M03 A3042 RMK A01 T00291025  RH  068%=      5-min Rain = 0
KDO1 150310Z 00000KT 03/M03 A3042 RMK A01 T00291026  RH  067%=      5-min Rain = 0
KDO1 150311Z 00000KT 03/M03 A3042 RMK A01 T00281026  RH  067%=      5-min Rain = 0
KDO1 150312Z 00000KT 03/M03 A3042 RMK A01 T00271028  RH  067%=      5-min Rain = 0
KDO1 150313Z 00000KT 03/M03 A3042 RMK A01 T00251029  RH  068%=      5-min Rain = 0
KDO1 150314Z 00000KT 02/M03 A3042 RMK A01 T00231029  RH  068%=      5-min Rain = 0
KDO1 150315Z 00000KT 02/M03 A3042 RMK A01 T00221029  RH  069%=      5-min Rain = 0
KDO1 150316Z 00000KT 02/M03 A3042 RMK A01 T00221028  RH  069%=      5-min Rain = 0
KDO1 150317Z 00000KT 02/M03 A3042 RMK A01 T00221028  RH  069%=      5-min Rain = 0
KDO1 150318Z 30000KT 02/M03 A3042 RMK A01 T00211030  RH  069%=      5-min Rain = 0
KDO1 150319Z 30000KT 02/M03 A3042 RMK A01 T00201030  RH  069%=      5-min Rain = 0
KDO1 150320Z 00000KT 02/M03 A3042 RMK A01 T00201029  RH  070%=      5-min Rain = 0
KDO1 150321Z 00000KT 02/M03 A3042 RMK A01 T00201029  RH  070%=      5-min Rain = 0
KDO1 150322Z 00000KT 02/M03 A3042 RMK A01 T00201029  RH  070%=      5-min Rain = 0
KDO1 150323Z 00000KT 02/M03 A3042 RMK A01 T00201028  RH  071%=      5-min Rain = 0
KDO1 150324Z 00000KT 02/M03 A3042 RMK A01 T00211026  RH  071%=      5-min Rain = 0
KDO1 150325Z 00000KT 02/M03 A3042 RMK A01 T00221025  RH  071%=      5-min Rain = 0
KDO1 150326Z 00000KT 03/M02 A3042 RMK A01 T00251020  RH  072%=      5-min Rain = 0
KDO1 150327Z 24000KT 03/M02 A3042 RMK A01 T00291018  RH  071%=      5-min Rain = 0
KDO1 150328Z 24001KT 03/M02 A3042 RMK A01 T00311021  RH  069%=      5-min Rain = 0
KDO1 150329Z 25001KT 03/M02 A3042 RMK A01 T00301024  RH  068%=      5-min Rain = 0
KDO1 150330Z 26001KT 03/M03 A3042 RMK A01 T00281026  RH  067%=      5-min Rain = 0
KDO1 150331Z 26001KT 03/M03 A3042 RMK A01 T00251028  RH  068%=      5-min Rain = 0
KDO1 150332Z 24002KT 02/M02 A3042 RMK A01 T00241024  RH  070%=      5-min Rain = 0
KDO1 150333Z 23002KT 03/M02 A3042 RMK A01 T00261021  RH  071%=      5-min Rain = 0
KDO1 150334Z 25001KT 03/M02 A3042 RMK A01 T00301019  RH  070%=      5-min Rain = 0
KDO1 150335Z 23002KT 03/M02 A3042 RMK A01 T00311021  RH  068%=      5-min Rain = 0
KDO1 150336Z 23002KT 03/M02 A3042 RMK A01 T00311022  RH  068%=      5-min Rain = 0
KDO1 150337Z 23002KT 03/M02 A3042 RMK A01 T00311021  RH  069%=      5-min Rain = 0
KDO1 150338Z 24002KT 03/M02 A3042 RMK A01 T00311023  RH  068%=      5-min Rain = 0
KDO1 150339Z 24002KT 03/M02 A3042 RMK A01 T00311023  RH  068%=      5-min Rain = 0
KDO1 150340Z 24002KT 03/M02 A3042 RMK A01 T00311023  RH  068%=      5-min Rain = 0
KDO1 150341Z 25002KT 03/M02 A3042 RMK A01 T00311022  RH  068%=      5-min Rain = 0
KDO1 150342Z 25002KT 03/M02 A3042 RMK A01 T00321021  RH  068%=      5-min Rain = 0
KDO1 150343Z 25002KT 03/M02 A3042 RMK A01 T00321022  RH  068%=      5-min Rain = 0
KDO1 150344Z 26002KT 03/M02 A3042 RMK A01 T00321022  RH  068%=      5-min Rain = 0
KDO1 150345Z 26002KT 03/M02 A3042 RMK A01 T00321022  RH  068%=      5-min Rain = 0
KDO1 150346Z 26002KT 03/M02 A3042 RMK A01 T00311023  RH  068%=      5-min Rain = 0
KDO1 150347Z 27002KT 03/M02 A3042 RMK A01 T00301024  RH  067%=      5-min Rain = 0
KDO1 150348Z 27003KT 03/M03 A3043 RMK A01 T00281026  RH  067%=      5-min Rain = 0
KDO1 150349Z 26003KT 03/M03 A3043 RMK A01 T00271026  RH  068%=      5-min Rain = 0
KDO1 150350Z 27003KT 03/M02 A3043 RMK A01 T00261024  RH  069%=      5-min Rain = 0
KDO1 150351Z 27003KT 03/M02 A3043 RMK A01 T00271022  RH  070%=      5-min Rain = 0
KDO1 150352Z 26004KT 03/M02 A3043 RMK A01 T00301020  RH  070%=      5-min Rain = 0
KDO1 150353Z 26004KT 03/M02 A3043 RMK A01 T00321018  RH  069%=      5-min Rain = 0
KDO1 150354Z 26004KT 04/M02 A3043 RMK A01 T00351019  RH  068%=      5-min Rain = 0
KDO1 150355Z 27004KT 04/M02 A3043 RMK A01 T00361021  RH  066%=      5-min Rain = 0
KDO1 150356Z 27004KT 04/M02 A3043 RMK A01 T00351022  RH  066%=      5-min Rain = 0
KDO1 150357Z 27004KT 04/M02 A3043 RMK A01 T00351022  RH  066%=      5-min Rain = 0
KDO1 150358Z 27004KT 04/M02 A3043 RMK A01 T00361021  RH  066%=      5-min Rain = 0
KDO1 150359Z 27004KT 04/M02 A3043 RMK A01 T00361021  RH  066%=      5-min Rain = 0
KDO1 150400Z 27004KT 04/M02 A3043 RMK A01 T00361023  RH  065%=      5-min Rain = 0
KDO1 150401Z 26004KT 04/M02 A3043 RMK A01 T00351023  RH  066%=      5-min Rain = 0
KDO1 150402Z 26004KT 04/M02 A3043 RMK A01 T00351022  RH  066%=      5-min Rain = 0
KDO1 150403Z 27004KT 04/M02 A3043 RMK A01 T00351022  RH  066%=      5-min Rain = 0
KDO1 150404Z 27004KT 03/M02 A3043 RMK A01 T00341022  RH  067%=      5-min Rain = 0
KDO1 150405Z 27003KT 03/M02 A3043 RMK A01 T00341022  RH  067%=      5-min Rain = 0
KDO1 150406Z 27003KT 04/M02 A3043 RMK A01 T00351022  RH  066%=      5-min Rain = 0
KDO1 150407Z 27003KT 03/M02 A3043 RMK A01 T00341022  RH  067%=      5-min Rain = 0
KDO1 150408Z 27003KT 03/M02 A3043 RMK A01 T00331022  RH  067%=      5-min Rain = 0
KDO1 150409Z 27003KT 03/M02 A3043 RMK A01 T00331022  RH  067%=      5-min Rain = 0
KDO1 150410Z 27003KT 03/M02 A3043 RMK A01 T00321023  RH  067%=      5-min Rain = 0
KDO1 150411Z 26003KT 03/M02 A3043 RMK A01 T00301024  RH  067%=      5-min Rain = 0
KDO1 150412Z 26004KT 03/M03 A3043 RMK A01 T00291025  RH  068%=      5-min Rain = 0
KDO1 150413Z 27003KT 03/M03 A3043 RMK A01 T00271025  RH  068%=      5-min Rain = 0
KDO1 150414Z 26003KT 03/M03 A3043 RMK A01 T00251026  RH  069%=      5-min Rain = 0
KDO1 150415Z 27002KT 02/M03 A3043 RMK A01 T00241026  RH  070%=      5-min Rain = 0
KDO1 150416Z 28002KT 02/M03 A3043 RMK A01 T00221027  RH  070%=      5-min Rain = 0
KDO1 150417Z 27002KT 02/M03 A3043 RMK A01 T00211028  RH  070%=      5-min Rain = 0
KDO1 150418Z 27002KT 02/M03 A3043 RMK A01 T00191028  RH  071%=      5-min Rain = 0
KDO1 150419Z 27002KT 02/M03 A3043 RMK A01 T00181028  RH  071%=      5-min Rain = 0
KDO1 150420Z 27002KT 02/M03 A3043 RMK A01 T00171028  RH  072%=      5-min Rain = 0
KDO1 150421Z 26002KT 02/M03 A3043 RMK A01 T00161028  RH  073%=      5-min Rain = 0
KDO1 150422Z 26002KT 02/M03 A3043 RMK A01 T00161027  RH  073%=      5-min Rain = 0
KDO1 150423Z 27002KT 02/M03 A3043 RMK A01 T00171027  RH  073%=      5-min Rain = 0
KDO1 150424Z 28001KT 02/M03 A3043 RMK A01 T00151031  RH  071%=      5-min Rain = 0
KDO1 150425Z 27001KT 01/M03 A3043 RMK A01 T00141029  RH  073%=      5-min Rain = 0
KDO1 150426Z 28001KT 01/M03 A3043 RMK A01 T00141028  RH  074%=      5-min Rain = 0
KDO1 150427Z 28001KT 02/M03 A3043 RMK A01 T00151028  RH  073%=      5-min Rain = 0
KDO1 150428Z 28001KT 02/M03 A3043 RMK A01 T00151029  RH  073%=      5-min Rain = 0
KDO1 150429Z 28002KT 02/M03 A3043 RMK A01 T00151028  RH  073%=      5-min Rain = 0
KDO1 150430Z 27002KT 02/M03 A3043 RMK A01 T00151028  RH  073%=      5-min Rain = 0
KDO1 150431Z 27003KT 02/M03 A3043 RMK A01 T00151029  RH  072%=      5-min Rain = 0
KDO1 150432Z 27003KT 01/M03 A3043 RMK A01 T00141030  RH  072%=      5-min Rain = 0
KDO1 150433Z 26004KT 01/M03 A3043 RMK A01 T00121032  RH  072%=      5-min Rain = 0
KDO1 150434Z 26004KT 01/M03 A3043 RMK A01 T00111032  RH  073%=      5-min Rain = 0
KDO1 150435Z 26004KT 01/M03 A3043 RMK A01 T00101032  RH  074%=      5-min Rain = 0
KDO1 150436Z 26004KT 01/M03 A3043 RMK A01 T00101031  RH  074%=      5-min Rain = 0
KDO1 150437Z 26003KT 01/M03 A3043 RMK A01 T00101030  RH  075%=      5-min Rain = 0
KDO1 150438Z 27003KT 01/M03 A3043 RMK A01 T00111029  RH  074%=      5-min Rain = 0
KDO1 150439Z 27003KT 01/M03 A3043 RMK A01 T00131027  RH  075%=      5-min Rain = 0
KDO1 150440Z 27004KT 02/M03 A3043 RMK A01 T00151026  RH  074%=      5-min Rain = 0
KDO1 150441Z 26004KT 02/M02 A3043 RMK A01 T00171024  RH  074%=      5-min Rain = 0
KDO1 150442Z 26004KT 02/M02 A3043 RMK A01 T00211021  RH  074%=      5-min Rain = 0
KDO1 150443Z 26004KT 02/M02 A3043 RMK A01 T00241020  RH  073%=      5-min Rain = 0
KDO1 150444Z 26004KT 03/M02 A3043 RMK A01 T00261020  RH  072%=      5-min Rain = 0
KDO1 150445Z 26004KT 03/M02 A3043 RMK A01 T00281020  RH  071%=      5-min Rain = 0
KDO1 150446Z 26004KT 03/M02 A3043 RMK A01 T00301020  RH  070%=      5-min Rain = 0
KDO1 150447Z 26004KT 03/M02 A3043 RMK A01 T00311020  RH  069%=      5-min Rain = 0
KDO1 150448Z 26003KT 03/M02 A3043 RMK A01 T00321021  RH  069%=      5-min Rain = 0
KDO1 150449Z 26003KT 03/M02 A3043 RMK A01 T00311022  RH  068%=      5-min Rain = 0
KDO1 150450Z 27002KT 03/M03 A3043 RMK A01 T00301025  RH  068%=      5-min Rain = 0
KDO1 150451Z 26002KT 03/M03 A3043 RMK A01 T00271025  RH  069%=      5-min Rain = 0
KDO1 150452Z 26002KT 03/M02 A3043 RMK A01 T00261024  RH  070%=      5-min Rain = 0
KDO1 150453Z 26002KT 03/M02 A3043 RMK A01 T00251023  RH  070%=      5-min Rain = 0
KDO1 150454Z 26002KT 03/M02 A3043 RMK A01 T00251023  RH  071%=      5-min Rain = 0
KDO1 150455Z 27001KT 03/M02 A3043 RMK A01 T00251023  RH  070%=      5-min Rain = 0
KDO1 150456Z 27001KT 03/M02 A3043 RMK A01 T00251024  RH  070%=      5-min Rain = 0
KDO1 150457Z 27001KT 02/M02 A3043 RMK A01 T00241024  RH  070%=      5-min Rain = 0
KDO1 150458Z 27002KT 02/M02 A3043 RMK A01 T00241024  RH  071%=      5-min Rain = 0
KDO1 150459Z 27002KT 02/M02 A3043 RMK A01 T00241023  RH  071%=      5-min Rain = 0
KDO1 150500Z 27003KT 02/M02 A3043 RMK A01 T00241023  RH  071%=      5-min Rain = 0
KDO1 150501Z 28003KT 02/M02 A3043 RMK A01 T00241023  RH  071%=      5-min Rain = 0
KDO1 150502Z 27002KT 02/M02 A3043 RMK A01 T00241024  RH  071%=      5-min Rain = 0
KDO1 150503Z 27002KT 02/M02 A3043 RMK A01 T00231024  RH  071%=      5-min Rain = 0
KDO1 150504Z 26002KT 02/M02 A3043 RMK A01 T00221024  RH  071%=      5-min Rain = 0
KDO1 150505Z 27002KT 02/M03 A3043 RMK A01 T00221027  RH  070%=      5-min Rain = 0
KDO1 150506Z 27002KT 02/M03 A3043 RMK A01 T00191030  RH  070%=      5-min Rain = 0
KDO1 150507Z 27003KT 02/M03 A3043 RMK A01 T00161031  RH  071%=      5-min Rain = 0
KDO1 150508Z 27003KT 02/M03 A3043 RMK A01 T00151029  RH  073%=      5-min Rain = 0
KDO1 150509Z 27003KT 02/M03 A3043 RMK A01 T00151026  RH  074%=      5-min Rain = 0
KDO1 150510Z 27004KT 02/M03 A3043 RMK A01 T00171025  RH  074%=      5-min Rain = 0
KDO1 150511Z 27004KT 02/M03 A3043 RMK A01 T00181025  RH  073%=      5-min Rain = 0
KDO1 150512Z 27004KT 02/M02 A3043 RMK A01 T00201024  RH  073%=      5-min Rain = 0
KDO1 150513Z 27004KT 02/M02 A3043 RMK A01 T00211024  RH  072%=      5-min Rain = 0
KDO1 150514Z 26004KT 02/M02 A3043 RMK A01 T00231023  RH  072%=      5-min Rain = 0
KDO1 150515Z 26004KT 02/M02 A3043 RMK A01 T00241021  RH  072%=      5-min Rain = 0
KDO1 150516Z 27004KT 03/M02 A3043 RMK A01 T00271020  RH  072%=      5-min Rain = 0
KDO1 150517Z 27004KT 03/M02 A3043 RMK A01 T00281020  RH  071%=      5-min Rain = 0
KDO1 150518Z 27004KT 03/M02 A3043 RMK A01 T00291020  RH  070%=      5-min Rain = 0
KDO1 150519Z 27004KT 03/M02 A3043 RMK A01 T00301020  RH  070%=      5-min Rain = 0
KDO1 150520Z 27004KT 03/M02 A3043 RMK A01 T00301020  RH  069%=      5-min Rain = 0
KDO1 150521Z 28004KT 03/M02 A3043 RMK A01 T00311020  RH  069%=      5-min Rain = 0
KDO1 150522Z 27004KT 03/M02 A3043 RMK A01 T00311020  RH  069%=      5-min Rain = 0
KDO1 150523Z 27003KT 03/M02 A3043 RMK A01 T00311021  RH  069%=      5-min Rain = 0
KDO1 150524Z 27003KT 03/M02 A3043 RMK A01 T00301022  RH  069%=      5-min Rain = 0
KDO1 150525Z 28004KT 03/M02 A3043 RMK A01 T00291023  RH  069%=      5-min Rain = 0
KDO1 150526Z 27004KT 03/M02 A3043 RMK A01 T00271023  RH  070%=      5-min Rain = 0
KDO1 150527Z 26004KT 03/M02 A3043 RMK A01 T00271021  RH  071%=      5-min Rain = 0
KDO1 150528Z 27003KT 03/M02 A3043 RMK A01 T00271022  RH  070%=      5-min Rain = 0
KDO1 150529Z 26003KT 03/M02 A3043 RMK A01 T00271022  RH  070%=      5-min Rain = 0
KDO1 150530Z 26003KT 03/M02 A3043 RMK A01 T00271022  RH  070%=      5-min Rain = 0
KDO1 150531Z 26003KT 03/M02 A3043 RMK A01 T00261023  RH  070%=      5-min Rain = 0
KDO1 150532Z 27002KT 03/M02 A3043 RMK A01 T00251023  RH  070%=      5-min Rain = 0
KDO1 150533Z 27002KT 02/M03 A3043 RMK A01 T00231027  RH  070%=      5-min Rain = 0
KDO1 150534Z 27003KT 02/M03 A3043 RMK A01 T00201027  RH  071%=      5-min Rain = 0
KDO1 150535Z 26003KT 02/M02 A3043 RMK A01 T00191024  RH  073%=      5-min Rain = 0
KDO1 150536Z 26003KT 02/M02 A3043 RMK A01 T00191024  RH  073%=      5-min Rain = 0
KDO1 150537Z 27003KT 02/M02 A3043 RMK A01 T00191024  RH  073%=      5-min Rain = 0
KDO1 150538Z 27003KT 02/M02 A3043 RMK A01 T00191024  RH  073%=      5-min Rain = 0
KDO1 150539Z 26003KT 02/M02 A3043 RMK A01 T00191023  RH  074%=      5-min Rain = 0
KDO1 150540Z 26004KT 02/M02 A3043 RMK A01 T00191021  RH  075%=      5-min Rain = 0
KDO1 150541Z 26004KT 02/M02 A3043 RMK A01 T00211020  RH  074%=      5-min Rain = 0
KDO1 150542Z 26004KT 02/M02 A3043 RMK A01 T00231018  RH  074%=      5-min Rain = 0
KDO1 150543Z 26004KT 03/M02 A3043 RMK A01 T00261017  RH  073%=      5-min Rain = 0
KDO1 150544Z 26004KT 03/M02 A3043 RMK A01 T00281017  RH  072%=      5-min Rain = 0
KDO1 150545Z 26004KT 03/M02 A3043 RMK A01 T00301017  RH  071%=      5-min Rain = 0
KDO1 150546Z 26004KT 03/M02 A3043 RMK A01 T00311018  RH  070%=      5-min Rain = 0
KDO1 150547Z 26004KT 03/M02 A3043 RMK A01 T00311018  RH  070%=      5-min Rain = 0
KDO1 150548Z 26004KT 03/M02 A3043 RMK A01 T00311018  RH  070%=      5-min Rain = 0
KDO1 150549Z 26004KT 03/M02 A3043 RMK A01 T00311019  RH  070%=      5-min Rain = 0
KDO1 150550Z 26004KT 03/M02 A3043 RMK A01 T00311019  RH  070%=      5-min Rain = 0
KDO1 150551Z 26004KT 03/M02 A3043 RMK A01 T00301020  RH  070%=      5-min Rain = 0
KDO1 150552Z 26004KT 03/M02 A3043 RMK A01 T00301019  RH  070%=      5-min Rain = 0
KDO1 150553Z 26004KT 03/M02 A3043 RMK A01 T00301019  RH  070%=      5-min Rain = 0
KDO1 150554Z 26004KT 03/M02 A3043 RMK A01 T00301019  RH  070%=      5-min Rain = 0
KDO1 150555Z 26004KT 03/M02 A3043 RMK A01 T00311019  RH  070%=      5-min Rain = 0
KDO1 150556Z 26004KT 03/M02 A3043 RMK A01 T00311019  RH  070%=      5-min Rain = 0
KDO1 150557Z 27004KT 03/M02 A3043 RMK A01 T00321019  RH  069%=      5-min Rain = 0
KDO1 150558Z 27004KT 03/M02 A3043 RMK A01 T00321020  RH  069%=      5-min Rain = 0
KDO1 150559Z 27004KT 03/M02 A3043 RMK A01 T00311020  RH  069%=      5-min Rain = 0

Page generated in 0.0814 seconds.